Wetterdaten: Donnerstag, 04.08.2016
Datum Zeit Temp. Aussen Temp. o. S. +5cm Feuchte Auss BlattFeu 1 Luftdruck Regen Sonnenschein Regendauer Solar Windben Empfang
04.08.2016 00:00 17,7 C 17,2 C 16,1 C 98 % 15 lf 1009,8 hPa 0,0 l/m 0 min 0 min 5 W/m 16,7 km/h (3 Bft) 95,74 %
04.08.2016 00:02 17,7 C 17,2 C 16,1 C 97 % 15 lf 1009,9 hPa 0,0 l/m 0 min 0 min 5 W/m 20,9 km/h (4 Bft) 100,00 %
04.08.2016 00:05 17,7 C 16,7 C 16,1 C 97 % 15 lf 1009,8 hPa 0,0 l/m 0 min 2 min 5 W/m 14,6 km/h (3 Bft) 100,00 %
04.08.2016 00:06 17,7 C 16,7 C 16,1 C 97 % 15 lf 1009,8 hPa 0,0 l/m 0 min 1 min 5 W/m 14,6 km/h (3 Bft) 96,15 %
04.08.2016 00:08 17,6 C 16,7 C 16,1 C 97 % 15 lf 1009,8 hPa 0,0 l/m 0 min 0 min 5 W/m 16,7 km/h (3 Bft) 95,74 %
04.08.2016 00:10 17,6 C 16,7 C 16,1 C 98 % 15 lf 1009,8 hPa 0,0 l/m 0 min 0 min 5 W/m 16,7 km/h (3 Bft) 100,00 %
04.08.2016 00:12 17,6 C 16,7 C 16,1 C 98 % 15 lf 1009,8 hPa 0,0 l/m 0 min 0 min 5 W/m 12,6 km/h (3 Bft) 100,00 %
04.08.2016 00:14 17,6 C 16,7 C 16,1 C 98 % 15 lf 1009,7 hPa 0,0 l/m 0 min 2 min 5 W/m 10,5 km/h (2 Bft) 100,00 %
04.08.2016 00:16 17,6 C 16,7 C 16,1 C 98 % 15 lf 1009,8 hPa 0,0 l/m 0 min 2 min 5 W/m 10,5 km/h (2 Bft) 100,00 %
04.08.2016 00:18 17,6 C 16,7 C 16,1 C 98 % 15 lf 1009,8 hPa 0,0 l/m 0 min 0 min 5 W/m 10,5 km/h (2 Bft) 97,87 %
04.08.2016 00:20 17,5 C 16,7 C 16,1 C 98 % 15 lf 1009,9 hPa 0,0 l/m 0 min 0 min 5 W/m 10,5 km/h (2 Bft) 97,87 %
04.08.2016 00:22 17,5 C 16,7 C 16,1 C 98 % 15 lf 1009,9 hPa 0,0 l/m 0 min 0 min 5 W/m 10,5 km/h (2 Bft) 100,00 %
04.08.2016 00:24 17,5 C 16,7 C 16,1 C 98 % 15 lf 1009,9 hPa 0,0 l/m 0 min 0 min 5 W/m 14,6 km/h (3 Bft) 100,00 %
04.08.2016 00:26 17,5 C 16,7 C 16,1 C 98 % 15 lf 1009,9 hPa 0,0 l/m 0 min 0 min 5 W/m 10,5 km/h (2 Bft) 95,74 %
04.08.2016 00:28 17,5 C 16,7 C 16,1 C 98 % 15 lf 1009,9 hPa 0,0 l/m 0 min 0 min 5 W/m 14,6 km/h (3 Bft) 97,87 %
04.08.2016 00:30 17,5 C 16,7 C 16,1 C 98 % 15 lf 1009,9 hPa 0,0 l/m 0 min 0 min 5 W/m 18,8 km/h (3 Bft) 100,00 %
04.08.2016 00:32 17,4 C 16,7 C 16,1 C 98 % 15 lf 1009,9 hPa 0,0 l/m 0 min 0 min 5 W/m 14,6 km/h (3 Bft) 97,87 %
04.08.2016 00:34 17,4 C 16,7 C 15,6 C 98 % 15 lf 1009,9 hPa 0,0 l/m 0 min 0 min 5 W/m 14,6 km/h (3 Bft) 93,62 %
04.08.2016 00:36 17,4 C 16,7 C 15,6 C 98 % 15 lf 1009,9 hPa 0,0 l/m 0 min 0 min 5 W/m 10,5 km/h (2 Bft) 93,75 %
04.08.2016 00:38 17,4 C 16,7 C 16,1 C 98 % 15 lf 1009,9 hPa 0,0 l/m 0 min 0 min 5 W/m 14,6 km/h (3 Bft) 100,00 %
04.08.2016 00:40 17,4 C 16,7 C 15,6 C 98 % 15 lf 1010,0 hPa 0,0 l/m 0 min 0 min 5 W/m 12,6 km/h (3 Bft) 100,00 %
04.08.2016 00:42 17,4 C 16,7 C 15,6 C 98 % 15 lf 1009,9 hPa 0,0 l/m 0 min 0 min 5 W/m 8,4 km/h (2 Bft) 93,62 %
04.08.2016 00:44 17,4 C 16,7 C 15,6 C 98 % 15 lf 1010,0 hPa 0,0 l/m 0 min 0 min 5 W/m 12,6 km/h (3 Bft) 97,83 %
04.08.2016 00:46 17,4 C 16,7 C 15,6 C 98 % 15 lf 1010,0 hPa 0,0 l/m 0 min 0 min 5 W/m 18,8 km/h (3 Bft) 97,87 %
04.08.2016 00:48 17,4 C 16,7 C 15,6 C 98 % 15 lf 1010,0 hPa 0,0 l/m 0 min 0 min 5 W/m 16,7 km/h (3 Bft) 95,74 %
04.08.2016 00:50 17,4 C 16,7 C 15,6 C 98 % 15 lf 1009,9 hPa 0,0 l/m 0 min 0 min 5 W/m 10,5 km/h (2 Bft) 91,49 %
04.08.2016 00:52 17,4 C 16,7 C 15,6 C 98 % 15 lf 1009,9 hPa 0,0 l/m 0 min 0 min 5 W/m 8,4 km/h (2 Bft) 93,62 %
04.08.2016 00:54 17,3 C 16,7 C 15,6 C 98 % 15 lf 1009,9 hPa 0,0 l/m 0 min 0 min 5 W/m 18,8 km/h (3 Bft) 93,62 %
04.08.2016 00:56 17,3 C 16,7 C 15,6 C 98 % 15 lf 1009,9 hPa 0,0 l/m 0 min 0 min 5 W/m 12,6 km/h (3 Bft) 93,48 %
04.08.2016 00:58 17,3 C 16,7 C 15,6 C 98 % 15 lf 1009,9 hPa 0,0 l/m 0 min 0 min 5 W/m 12,6 km/h (3 Bft) 91,49 %
04.08.2016 01:00 17,3 C 16,7 C 15,6 C 98 % 15 lf 1009,8 hPa 0,0 l/m 0 min 0 min 5 W/m 12,6 km/h (3 Bft) 89,36 %
04.08.2016 01:02 17,3 C 16,7 C 15,6 C 98 % 15 lf 1009,9 hPa 0,0 l/m 0 min 0 min 5 W/m 6,3 km/h (2 Bft) 93,62 %
04.08.2016 01:04 17,3 C 16,7 C 15,6 C 98 % 15 lf 1009,9 hPa 0,0 l/m 0 min 0 min 5 W/m 14,6 km/h (3 Bft) 91,49 %
04.08.2016 01:06 17,3 C 16,7 C 15,6 C 98 % 15 lf 1009,9 hPa 0,0 l/m 0 min 0 min 5 W/m 12,6 km/h (3 Bft) 91,49 %
04.08.2016 01:08 17,3 C 16,7 C 15,6 C 98 % 15 lf 1009,9 hPa 0,0 l/m 0 min 0 min 5 W/m 12,6 km/h (3 Bft) 93,48 %
04.08.2016 01:10 17,3 C 16,7 C 15,6 C 98 % 15 lf 1009,9 hPa 0,0 l/m 0 min 0 min 5 W/m 14,6 km/h (3 Bft) 93,62 %
04.08.2016 01:12 17,3 C 16,7 C 15,6 C 98 % 15 lf 1009,9 hPa 0,0 l/m 0 min 0 min 5 W/m 16,7 km/h (3 Bft) 93,62 %
04.08.2016 01:14 17,3 C 16,7 C 15,6 C 98 % 15 lf 1009,9 hPa 0,0 l/m 0 min 0 min 5 W/m 14,6 km/h (3 Bft) 89,36 %
04.08.2016 01:16 17,2 C 16,7 C 15,6 C 98 % 15 lf 1009,9 hPa 0,0 l/m 0 min 0 min 5 W/m 14,6 km/h (3 Bft) 91,49 %
04.08.2016 01:18 17,2 C 16,7 C 15,6 C 98 % 15 lf 1009,9 hPa 0,0 l/m 0 min 0 min 5 W/m 18,8 km/h (3 Bft) 91,49 %
04.08.2016 01:20 17,2 C 16,7 C 15,6 C 98 % 15 lf 1009,9 hPa 0,0 l/m 0 min 0 min 5 W/m 18,8 km/h (3 Bft) 95,65 %
04.08.2016 01:22 17,2 C 16,7 C 15,6 C 98 % 15 lf 1010,1 hPa 0,0 l/m 0 min 0 min 5 W/m 16,7 km/h (3 Bft) 95,74 %
04.08.2016 01:24 17,1 C 16,7 C 15,6 C 98 % 15 lf 1010,0 hPa 0,0 l/m 0 min 0 min 5 W/m 16,7 km/h (3 Bft) 91,49 %
04.08.2016 01:26 17,1 C 16,7 C 15,0 C 98 % 15 lf 1010,1 hPa 0,0 l/m 0 min 0 min 5 W/m 14,6 km/h (3 Bft) 93,62 %
04.08.2016 01:28 17,1 C 16,7 C 15,0 C 98 % 15 lf 1010,2 hPa 0,0 l/m 0 min 0 min 5 W/m 12,6 km/h (3 Bft) 95,74 %
04.08.2016 01:30 17,1 C 16,7 C 15,0 C 98 % 15 lf 1010,1 hPa 0,0 l/m 0 min 0 min 5 W/m 14,6 km/h (3 Bft) 95,74 %
04.08.2016 01:32 17,1 C 16,7 C 15,0 C 98 % 15 lf 1010,0 hPa 0,0 l/m 0 min 0 min 5 W/m 14,6 km/h (3 Bft) 97,83 %
04.08.2016 01:34 17,1 C 16,7 C 15,0 C 98 % 15 lf 1010,0 hPa 0,0 l/m 0 min 0 min 5 W/m 23,0 km/h (4 Bft) 97,87 %
04.08.2016 01:36 17,1 C 16,7 C 15,0 C 98 % 15 lf 1010,0 hPa 0,0 l/m 0 min 0 min 5 W/m 18,8 km/h (3 Bft) 97,62 %
04.08.2016 01:38 17,1 C 16,7 C 15,0 C 98 % 15 lf 1010,1 hPa 0,0 l/m 0 min 0 min 5 W/m 14,6 km/h (3 Bft) 100,00 %
04.08.2016 01:40 17,1 C 16,7 C 15,0 C 98 % 15 lf 1010,1 hPa 0,0 l/m 0 min 0 min 5 W/m 16,7 km/h (3 Bft) 100,00 %
04.08.2016 01:42 17,0 C 16,7 C 15,0 C 98 % 15 lf 1010,0 hPa 0,0 l/m 0 min 0 min 5 W/m 14,6 km/h (3 Bft) 93,62 %
04.08.2016 01:44 17,0 C 16,7 C 15,0 C 98 % 15 lf 1010,0 hPa 0,0 l/m 0 min 0 min 5 W/m 12,6 km/h (3 Bft) 95,65 %
04.08.2016 01:46 17,0 C 16,7 C 15,0 C 98 % 15 lf 1010,0 hPa 0,0 l/m 0 min 0 min 5 W/m 14,6 km/h (3 Bft) 100,00 %
04.08.2016 01:48 17,0 C 16,7 C 15,0 C 98 % 15 lf 1010,1 hPa 0,0 l/m 0 min 0 min 5 W/m 16,7 km/h (3 Bft) 100,00 %
04.08.2016 01:50 17,0 C 16,7 C 15,0 C 98 % 15 lf 1010,2 hPa 0,0 l/m 0 min 0 min 5 W/m 10,5 km/h (2 Bft) 97,87 %
04.08.2016 01:52 16,9 C 16,1 C 15,0 C 98 % 15 lf 1010,1 hPa 0,0 l/m 0 min 0 min 5 W/m 16,7 km/h (3 Bft) 95,74 %
04.08.2016 01:54 16,9 C 16,1 C 15,0 C 98 % 15 lf 1010,1 hPa 0,0 l/m 0 min 0 min 5 W/m 14,6 km/h (3 Bft) 95,74 %
04.08.2016 01:56 16,9 C 16,7 C 15,0 C 98 % 15 lf 1010,1 hPa 0,0 l/m 0 min 0 min 5 W/m 18,8 km/h (3 Bft) 95,65 %
04.08.2016 01:58 16,9 C 16,1 C 15,0 C 98 % 15 lf 1010,1 hPa 0,0 l/m 0 min 0 min 5 W/m 20,9 km/h (4 Bft) 100,00 %
04.08.2016 02:00 16,9 C 16,7 C 15,0 C 98 % 15 lf 1010,0 hPa 0,0 l/m 0 min 0 min 5 W/m 20,9 km/h (4 Bft) 95,74 %
04.08.2016 02:02 16,9 C 16,1 C 15,0 C 98 % 15 lf 1010,0 hPa 0,0 l/m 0 min 0 min 5 W/m 14,6 km/h (3 Bft) 97,92 %
04.08.2016 02:04 16,9 C 16,1 C 15,0 C 98 % 15 lf 1009,9 hPa 0,0 l/m 0 min 0 min 5 W/m 18,8 km/h (3 Bft) 100,00 %
04.08.2016 02:06 16,9 C 16,1 C 15,0 C 98 % 15 lf 1010,0 hPa 0,0 l/m 0 min 0 min 5 W/m 12,6 km/h (3 Bft) 100,00 %
04.08.2016 02:08 16,9 C 16,1 C 15,0 C 98 % 15 lf 1010,1 hPa 0,0 l/m 0 min 0 min 5 W/m 10,5 km/h (2 Bft) 100,00 %
04.08.2016 02:10 16,9 C 16,1 C 15,0 C 98 % 15 lf 1010,0 hPa 0,0 l/m 0 min 0 min 5 W/m 10,5 km/h (2 Bft) 95,74 %
04.08.2016 02:12 16,9 C 16,1 C 15,0 C 98 % 15 lf 1010,0 hPa 0,0 l/m 0 min 0 min 5 W/m 12,6 km/h (3 Bft) 100,00 %
04.08.2016 02:14 16,8 C 16,1 C 15,0 C 98 % 15 lf 1010,0 hPa 0,0 l/m 0 min 0 min 5 W/m 18,8 km/h (3 Bft) 100,00 %
04.08.2016 02:16 16,8 C 16,1 C 15,0 C 98 % 15 lf 1010,0 hPa 0,0 l/m 0 min 0 min 5 W/m 10,5 km/h (2 Bft) 100,00 %
04.08.2016 02:18 16,8 C 16,1 C 15,0 C 98 % 15 lf 1009,9 hPa 0,0 l/m 0 min 0 min 5 W/m 14,6 km/h (3 Bft) 97,83 %
04.08.2016 02:20 16,8 C 16,1 C 15,0 C 98 % 15 lf 1009,9 hPa 0,0 l/m 0 min 0 min 5 W/m 14,6 km/h (3 Bft) 97,87 %
04.08.2016 02:22 16,8 C 16,1 C 15,0 C 98 % 15 lf 1009,9 hPa 0,0 l/m 0 min 2 min 5 W/m 16,7 km/h (3 Bft) 100,00 %
04.08.2016 02:24 16,8 C 16,1 C 15,0 C 98 % 15 lf 1009,9 hPa 0,0 l/m 0 min 0 min 5 W/m 16,7 km/h (3 Bft) 100,00 %
04.08.2016 02:26 16,8 C 16,1 C 15,0 C 98 % 15 lf 1010,1 hPa 0,0 l/m 0 min 0 min 5 W/m 18,8 km/h (3 Bft) 100,00 %
04.08.2016 02:28 16,8 C 16,1 C 15,0 C 98 % 15 lf 1010,1 hPa 0,0 l/m 0 min 0 min 5 W/m 16,7 km/h (3 Bft) 97,87 %
04.08.2016 02:30 16,8 C 16,1 C 15,0 C 98 % 15 lf 1010,1 hPa 0,0 l/m 0 min 0 min 5 W/m 16,7 km/h (3 Bft) 100,00 %
04.08.2016 02:32 16,8 C 16,1 C 15,0 C 98 % 15 lf 1010,0 hPa 0,0 l/m 0 min 0 min 5 W/m 16,7 km/h (3 Bft) 96,08 %
04.08.2016 02:34 16,8 C 16,1 C 15,0 C 98 % 15 lf 1010,0 hPa 0,0 l/m 0 min 0 min 5 W/m 14,6 km/h (3 Bft) 97,87 %
04.08.2016 02:36 16,7 C 16,1 C 15,0 C 98 % 15 lf 1009,9 hPa 0,0 l/m 0 min 0 min 5 W/m 16,7 km/h (3 Bft) 97,37 %
04.08.2016 02:38 16,7 C 16,1 C 15,0 C 98 % 15 lf 1010,1 hPa 0,0 l/m 0 min 0 min 5 W/m 18,8 km/h (3 Bft) 97,87 %
04.08.2016 02:40 16,7 C 16,1 C 15,0 C 98 % 15 lf 1010,1 hPa 0,0 l/m 0 min 0 min 5 W/m 16,7 km/h (3 Bft) 93,62 %
04.08.2016 02:42 16,7 C 16,1 C 15,0 C 98 % 15 lf 1010,1 hPa 0,0 l/m 0 min 0 min 5 W/m 12,6 km/h (3 Bft) 95,74 %
04.08.2016 02:44 16,6 C 16,1 C 15,0 C 98 % 15 lf 1010,1 hPa 0,0 l/m 0 min 0 min 5 W/m 14,6 km/h (3 Bft) 93,48 %
04.08.2016 02:46 16,6 C 16,1 C 15,0 C 98 % 15 lf 1010,1 hPa 0,0 l/m 0 min 0 min 5 W/m 20,9 km/h (4 Bft) 95,74 %
04.08.2016 02:48 16,6 C 16,1 C 15,0 C 98 % 15 lf 1010,1 hPa 0,0 l/m 0 min 0 min 5 W/m 18,8 km/h (3 Bft) 93,62 %
04.08.2016 02:50 16,6 C 16,1 C 15,0 C 98 % 15 lf 1010,1 hPa 0,0 l/m 0 min 0 min 5 W/m 12,6 km/h (3 Bft) 93,62 %
04.08.2016 02:52 16,6 C 16,1 C 15,0 C 98 % 15 lf 1009,9 hPa 0,0 l/m 0 min 0 min 5 W/m 12,6 km/h (3 Bft) 89,36 %
04.08.2016 02:54 16,6 C 16,1 C 15,0 C 98 % 15 lf 1010,0 hPa 0,0 l/m 0 min 0 min 5 W/m 10,5 km/h (2 Bft) 95,74 %
04.08.2016 02:56 16,6 C 16,1 C 15,0 C 98 % 15 lf 1010,0 hPa 0,0 l/m 0 min 0 min 5 W/m 10,5 km/h (2 Bft) 95,65 %
04.08.2016 02:58 16,6 C 16,1 C 15,0 C 98 % 15 lf 1010,1 hPa 0,0 l/m 0 min 0 min 5 W/m 10,5 km/h (2 Bft) 95,74 %
04.08.2016 03:00 16,6 C 16,1 C 15,0 C 98 % 15 lf 1010,1 hPa 0,0 l/m 0 min 0 min 5 W/m 12,6 km/h (3 Bft) 91,49 %
04.08.2016 03:02 16,6 C 16,1 C 15,0 C 98 % 15 lf 1010,1 hPa 0,0 l/m 0 min 0 min 5 W/m 14,6 km/h (3 Bft) 93,62 %
04.08.2016 03:04 16,6 C 16,1 C 15,0 C 98 % 15 lf 1010,1 hPa 0,0 l/m 0 min 0 min 5 W/m 8,4 km/h (2 Bft) 93,62 %
04.08.2016 03:06 16,6 C 16,1 C 15,0 C 98 % 15 lf 1010,0 hPa 0,0 l/m 0 min 0 min 5 W/m 8,4 km/h (2 Bft) 94,74 %
04.08.2016 03:08 16,6 C 16,1 C 15,0 C 98 % 15 lf 1010,0 hPa 0,0 l/m 0 min 0 min 5 W/m 10,5 km/h (2 Bft) 89,36 %
04.08.2016 03:10 16,6 C 16,1 C 15,0 C 98 % 15 lf 1010,0 hPa 0,0 l/m 0 min 0 min 5 W/m 12,6 km/h (3 Bft) 95,74 %
04.08.2016 03:12 16,6 C 16,1 C 15,0 C 98 % 15 lf 1010,0 hPa 0,0 l/m 0 min 0 min 5 W/m 12,6 km/h (3 Bft) 95,74 %
04.08.2016 03:14 16,6 C 16,1 C 15,0 C 98 % 15 lf 1010,0 hPa 0,0 l/m 0 min 0 min 5 W/m 12,6 km/h (3 Bft) 97,87 %
04.08.2016 03:16 16,6 C 16,1 C 15,0 C 98 % 15 lf 1009,9 hPa 0,0 l/m 0 min 0 min 5 W/m 14,6 km/h (3 Bft) 97,83 %
04.08.2016 03:18 16,6 C 16,1 C 15,0 C 98 % 15 lf 1009,9 hPa 0,0 l/m 0 min 0 min 5 W/m 12,6 km/h (3 Bft) 97,87 %
04.08.2016 03:20 16,6 C 16,1 C 15,0 C 98 % 15 lf 1010,0 hPa 0,0 l/m 0 min 0 min 5 W/m 23,0 km/h (4 Bft) 91,49 %
04.08.2016 03:22 16,6 C 16,1 C 15,0 C 98 % 15 lf 1010,0 hPa 0,0 l/m 0 min 0 min 5 W/m 14,6 km/h (3 Bft) 91,49 %
04.08.2016 03:24 16,6 C 16,1 C 15,0 C 98 % 15 lf 1010,0 hPa 0,0 l/m 0 min 0 min 5 W/m 14,6 km/h (3 Bft) 95,74 %
04.08.2016 03:26 16,6 C 16,1 C 15,0 C 98 % 15 lf 1009,9 hPa 0,0 l/m 0 min 0 min 5 W/m 14,6 km/h (3 Bft) 97,87 %
04.08.2016 03:28 16,6 C 16,1 C 15,0 C 98 % 15 lf 1010,0 hPa 0,0 l/m 0 min 0 min 5 W/m 8,4 km/h (2 Bft) 95,65 %
04.08.2016 03:30 16,6 C 16,1 C 15,0 C 98 % 15 lf 1010,1 hPa 0,0 l/m 0 min 0 min 5 W/m 12,6 km/h (3 Bft) 95,74 %
04.08.2016 03:32 16,6 C 16,1 C 15,0 C 98 % 15 lf 1010,1 hPa 0,0 l/m 0 min 0 min 5 W/m 10,5 km/h (2 Bft) 97,22 %
04.08.2016 03:34 16,6 C 16,1 C 15,0 C 98 % 15 lf 1010,0 hPa 0,0 l/m 0 min 0 min 5 W/m 6,3 km/h (2 Bft) 97,87 %
04.08.2016 03:36 16,6 C 16,1 C 15,0 C 98 % 15 lf 1009,9 hPa 0,0 l/m 0 min 0 min 5 W/m 6,3 km/h (2 Bft) 95,74 %
04.08.2016 03:38 16,6 C 16,1 C 15,0 C 98 % 15 lf 1009,9 hPa 0,0 l/m 0 min 0 min 5 W/m 14,6 km/h (3 Bft) 93,62 %
04.08.2016 03:40 16,6 C 16,1 C 15,0 C 98 % 15 lf 1009,9 hPa 0,0 l/m 0 min 0 min 5 W/m 10,5 km/h (2 Bft) 93,62 %
04.08.2016 03:42 16,6 C 16,1 C 15,0 C 98 % 15 lf 1009,8 hPa 0,0 l/m 0 min 0 min 5 W/m 12,6 km/h (3 Bft) 93,48 %
04.08.2016 03:44 16,6 C 16,1 C 15,0 C 98 % 15 lf 1009,9 hPa 0,0 l/m 0 min 0 min 5 W/m 16,7 km/h (3 Bft) 93,62 %
04.08.2016 03:46 16,5 C 16,1 C 15,0 C 98 % 15 lf 1009,8 hPa 0,0 l/m 0 min 0 min 5 W/m 16,7 km/h (3 Bft) 93,62 %
04.08.2016 03:48 16,4 C 16,1 C 14,4 C 97 % 15 lf 1009,8 hPa 0,0 l/m 0 min 0 min 5 W/m 14,6 km/h (3 Bft) 95,74 %
04.08.2016 03:50 16,4 C 15,6 C 14,4 C 97 % 15 lf 1009,8 hPa 0,0 l/m 0 min 0 min 5 W/m 12,6 km/h (3 Bft) 96,23 %
04.08.2016 03:52 16,4 C 15,6 C 14,4 C 98 % 15 lf 1009,8 hPa 0,0 l/m 0 min 0 min 5 W/m 18,8 km/h (3 Bft) 93,48 %
04.08.2016 03:54 16,4 C 15,6 C 14,4 C 98 % 15 lf 1009,9 hPa 0,0 l/m 0 min 0 min 5 W/m 16,7 km/h (3 Bft) 95,74 %
04.08.2016 03:56 16,4 C 15,6 C 14,4 C 97 % 15 lf 1009,9 hPa 0,0 l/m 0 min 0 min 5 W/m 14,6 km/h (3 Bft) 95,74 %
04.08.2016 03:58 16,3 C 15,6 C 14,4 C 97 % 15 lf 1009,8 hPa 0,0 l/m 0 min 0 min 5 W/m 14,6 km/h (3 Bft) 95,74 %
04.08.2016 04:00 16,3 C 15,6 C 14,4 C 97 % 15 lf 1009,8 hPa 0,0 l/m 0 min 0 min 5 W/m 16,7 km/h (3 Bft) 91,49 %
04.08.2016 04:02 16,3 C 15,6 C 14,4 C 97 % 15 lf 1009,8 hPa 0,0 l/m 0 min 0 min 5 W/m 10,5 km/h (2 Bft) 94,29 %
04.08.2016 04:04 16,3 C 15,6 C 14,4 C 97 % 15 lf 1009,8 hPa 0,0 l/m 0 min 0 min 5 W/m 12,6 km/h (3 Bft) 95,65 %
04.08.2016 04:06 16,3 C 15,6 C 14,4 C 97 % 15 lf 1009,8 hPa 0,0 l/m 0 min 0 min 5 W/m 12,6 km/h (3 Bft) 97,37 %
04.08.2016 04:08 16,2 C 15,6 C 14,4 C 97 % 15 lf 1009,8 hPa 0,0 l/m 0 min 0 min 5 W/m 10,5 km/h (2 Bft) 95,74 %
04.08.2016 04:10 16,2 C 15,6 C 14,4 C 97 % 15 lf 1009,7 hPa 0,0 l/m 0 min 0 min 5 W/m 14,6 km/h (3 Bft) 95,74 %
04.08.2016 04:12 16,2 C 15,6 C 14,4 C 97 % 15 lf 1009,7 hPa 0,0 l/m 0 min 0 min 5 W/m 18,8 km/h (3 Bft) 95,74 %
04.08.2016 04:14 16,2 C 15,6 C 14,4 C 97 % 15 lf 1009,8 hPa 0,0 l/m 0 min 0 min 5 W/m 23,0 km/h (4 Bft) 95,74 %
04.08.2016 04:16 16,1 C 15,6 C 14,4 C 97 % 15 lf 1009,8 hPa 0,0 l/m 0 min 0 min 5 W/m 16,7 km/h (3 Bft) 93,62 %
04.08.2016 04:18 16,1 C 15,6 C 14,4 C 97 % 15 lf 1009,8 hPa 0,0 l/m 0 min 0 min 5 W/m 16,7 km/h (3 Bft) 95,65 %
04.08.2016 04:20 16,1 C 15,6 C 14,4 C 97 % 15 lf 1009,8 hPa 0,0 l/m 0 min 0 min 5 W/m 16,7 km/h (3 Bft) 93,62 %
04.08.2016 04:22 16,1 C 15,6 C 14,4 C 97 % 15 lf 1009,9 hPa 0,0 l/m 0 min 0 min 5 W/m 12,6 km/h (3 Bft) 97,87 %
04.08.2016 04:24 16,0 C 15,6 C 14,4 C 97 % 15 lf 1009,8 hPa 0,0 l/m 0 min 0 min 5 W/m 18,8 km/h (3 Bft) 95,74 %
04.08.2016 04:26 16,0 C 15,6 C 14,4 C 97 % 15 lf 1009,8 hPa 0,0 l/m 0 min 0 min 5 W/m 16,7 km/h (3 Bft) 95,74 %
04.08.2016 04:28 16,0 C 15,6 C 14,4 C 97 % 15 lf 1009,8 hPa 0,0 l/m 0 min 0 min 5 W/m 12,6 km/h (3 Bft) 97,83 %
04.08.2016 04:30 16,0 C 15,6 C 14,4 C 97 % 15 lf 1009,8 hPa 0,0 l/m 0 min 0 min 5 W/m 12,6 km/h (3 Bft) 100,00 %
04.08.2016 04:32 15,9 C 15,6 C 14,4 C 97 % 15 lf 1009,8 hPa 0,0 l/m 0 min 0 min 5 W/m 16,7 km/h (3 Bft) 97,87 %
04.08.2016 04:34 15,9 C 15,6 C 14,4 C 97 % 15 lf 1009,8 hPa 0,0 l/m 0 min 0 min 5 W/m 14,6 km/h (3 Bft) 100,00 %
04.08.2016 04:36 15,9 C 15,6 C 14,4 C 97 % 15 lf 1009,8 hPa 0,0 l/m 0 min 0 min 5 W/m 10,5 km/h (2 Bft) 100,00 %
04.08.2016 04:38 15,9 C 15,6 C 14,4 C 97 % 15 lf 1009,8 hPa 0,0 l/m 0 min 0 min 5 W/m 14,6 km/h (3 Bft) 98,41 %
04.08.2016 04:40 15,9 C 15,6 C 14,4 C 97 % 15 lf 1009,8 hPa 0,0 l/m 0 min 0 min 5 W/m 14,6 km/h (3 Bft) 95,65 %
04.08.2016 04:42 15,9 C 15,6 C 14,4 C 97 % 15 lf 1009,8 hPa 0,0 l/m 0 min 0 min 5 W/m 12,6 km/h (3 Bft) 95,74 %
04.08.2016 04:44 15,9 C 15,6 C 14,4 C 97 % 15 lf 1009,8 hPa 0,0 l/m 0 min 0 min 5 W/m 20,9 km/h (4 Bft) 97,87 %
04.08.2016 04:46 15,9 C 15,6 C 14,4 C 97 % 14 lf 1009,9 hPa 0,0 l/m 0 min 0 min 5 W/m 14,6 km/h (3 Bft) 91,49 %
04.08.2016 04:48 15,9 C 15,6 C 14,4 C 97 % 14 lf 1009,8 hPa 0,0 l/m 0 min 0 min 5 W/m 18,8 km/h (3 Bft) 95,74 %
04.08.2016 04:50 15,9 C 15,6 C 14,4 C 97 % 14 lf 1009,9 hPa 0,0 l/m 0 min 0 min 5 W/m 14,6 km/h (3 Bft) 97,87 %
04.08.2016 04:52 15,9 C 15,6 C 14,4 C 96 % 14 lf 1009,9 hPa 0,0 l/m 0 min 0 min 5 W/m 16,7 km/h (3 Bft) 95,65 %
04.08.2016 04:54 15,9 C 15,6 C 14,4 C 96 % 14 lf 1009,9 hPa 0,0 l/m 0 min 0 min 5 W/m 20,9 km/h (4 Bft) 97,87 %
04.08.2016 04:56 15,9 C 15,6 C 14,4 C 96 % 13 lf 1009,9 hPa 0,0 l/m 0 min 0 min 5 W/m 16,7 km/h (3 Bft) 97,87 %
04.08.2016 04:58 15,9 C 15,6 C 14,4 C 96 % 13 lf 1009,9 hPa 0,0 l/m 0 min 0 min 5 W/m 16,7 km/h (3 Bft) 97,87 %
04.08.2016 05:00 15,9 C 15,6 C 14,4 C 96 % 12 lf 1009,9 hPa 0,0 l/m 0 min 0 min 5 W/m 20,9 km/h (4 Bft) 97,87 %
04.08.2016 05:02 15,9 C 15,6 C 14,4 C 96 % 12 lf 1009,9 hPa 0,0 l/m 0 min 0 min 5 W/m 16,7 km/h (3 Bft) 93,62 %
04.08.2016 05:04 15,9 C 15,6 C 14,4 C 96 % 12 lf 1009,9 hPa 0,0 l/m 0 min 0 min 5 W/m 16,7 km/h (3 Bft) 97,83 %
04.08.2016 05:06 15,9 C 15,6 C 14,4 C 96 % 12 lf 1009,9 hPa 0,0 l/m 0 min 0 min 5 W/m 20,9 km/h (4 Bft) 97,87 %
04.08.2016 05:08 15,9 C 15,6 C 14,4 C 96 % 12 lf 1009,9 hPa 0,0 l/m 0 min 0 min 5 W/m 12,6 km/h (3 Bft) 97,87 %
04.08.2016 05:10 15,9 C 15,6 C 14,4 C 96 % 11 lf 1009,9 hPa 0,0 l/m 0 min 0 min 5 W/m 18,8 km/h (3 Bft) 100,00 %
04.08.2016 05:12 15,9 C 15,6 C 14,4 C 96 % 10 lf 1010,0 hPa 0,0 l/m 0 min 0 min 5 W/m 14,6 km/h (3 Bft) 100,00 %
04.08.2016 05:14 15,9 C 15,6 C 14,4 C 96 % 9 lf 1010,0 hPa 0,0 l/m 0 min 0 min 5 W/m 14,6 km/h (3 Bft) 93,62 %
04.08.2016 05:16 15,9 C 15,6 C 14,4 C 96 % 8 lf 1010,0 hPa 0,0 l/m 0 min 0 min 5 W/m 12,6 km/h (3 Bft) 100,00 %
04.08.2016 05:18 15,9 C 15,6 C 14,4 C 96 % 5 lf 1009,9 hPa 0,0 l/m 0 min 0 min 5 W/m 20,9 km/h (4 Bft) 91,30 %
04.08.2016 05:20 15,9 C 15,6 C 14,4 C 96 % 4 lf 1009,9 hPa 0,0 l/m 0 min 0 min 5 W/m 23,0 km/h (4 Bft) 100,00 %
04.08.2016 05:22 15,9 C 15,6 C 14,4 C 95 % 3 lf 1009,9 hPa 0,0 l/m 0 min 0 min 5 W/m 14,6 km/h (3 Bft) 100,00 %
04.08.2016 05:24 15,9 C 15,6 C 14,4 C 95 % 3 lf 1009,9 hPa 0,0 l/m 0 min 0 min 5 W/m 16,7 km/h (3 Bft) 100,00 %
04.08.2016 05:26 15,9 C 16,1 C 14,4 C 95 % 3 lf 1009,8 hPa 0,0 l/m 0 min 0 min 5 W/m 14,6 km/h (3 Bft) 97,87 %
04.08.2016 05:28 15,9 C 16,1 C 14,4 C 95 % 3 lf 1009,9 hPa 0,0 l/m 0 min 0 min 5 W/m 16,7 km/h (3 Bft) 100,00 %
04.08.2016 05:30 15,9 C 16,1 C 14,4 C 95 % 3 lf 1009,7 hPa 0,0 l/m 0 min 0 min 5 W/m 14,6 km/h (3 Bft) 100,00 %
04.08.2016 05:32 15,9 C 16,1 C 14,4 C 95 % 3 lf 1009,9 hPa 0,0 l/m 0 min 0 min 5 W/m 14,6 km/h (3 Bft) 100,00 %
04.08.2016 05:34 15,9 C 16,1 C 14,4 C 95 % 3 lf 1009,8 hPa 0,0 l/m 0 min 0 min 5 W/m 14,6 km/h (3 Bft) 97,87 %
04.08.2016 05:36 15,9 C 16,1 C 14,4 C 95 % 3 lf 1009,8 hPa 0,0 l/m 0 min 0 min 5 W/m 14,6 km/h (3 Bft) 100,00 %
04.08.2016 05:38 15,9 C 16,1 C 14,4 C 95 % 3 lf 1009,8 hPa 0,0 l/m 0 min 0 min 5 W/m 16,7 km/h (3 Bft) 97,87 %
04.08.2016 05:40 15,9 C 16,1 C 13,9 C 95 % 3 lf 1009,9 hPa 0,0 l/m 0 min 0 min 5 W/m 23,0 km/h (4 Bft) 100,00 %
04.08.2016 05:42 15,9 C 16,1 C 13,9 C 95 % 3 lf 1009,9 hPa 0,0 l/m 0 min 0 min 5 W/m 16,7 km/h (3 Bft) 97,87 %
04.08.2016 05:44 15,9 C 16,1 C 13,9 C 95 % 3 lf 1010,0 hPa 0,0 l/m 0 min 0 min 5 W/m 16,7 km/h (3 Bft) 100,00 %
04.08.2016 05:46 15,9 C 15,6 C 13,9 C 94 % 3 lf 1009,9 hPa 0,0 l/m 0 min 0 min 5 W/m 14,6 km/h (3 Bft) 97,87 %
04.08.2016 05:48 15,9 C 15,6 C 13,9 C 94 % 3 lf 1009,9 hPa 0,0 l/m 0 min 0 min 6 W/m 12,6 km/h (3 Bft) 97,83 %
04.08.2016 05:50 15,8 C 15,6 C 13,9 C 94 % 3 lf 1010,0 hPa 0,0 l/m 0 min 0 min 7 W/m 16,7 km/h (3 Bft) 97,87 %
04.08.2016 05:52 15,8 C 15,6 C 13,9 C 94 % 3 lf 1010,0 hPa 0,0 l/m 0 min 0 min 7 W/m 18,8 km/h (3 Bft) 100,00 %
04.08.2016 05:54 15,8 C 15,6 C 13,9 C 94 % 3 lf 1009,9 hPa 0,0 l/m 0 min 0 min 7 W/m 8,4 km/h (2 Bft) 97,87 %
04.08.2016 05:56 15,8 C 15,6 C 13,9 C 94 % 3 lf 1010,0 hPa 0,0 l/m 0 min 0 min 7 W/m 12,6 km/h (3 Bft) 100,00 %
04.08.2016 05:58 15,8 C 15,6 C 13,9 C 94 % 3 lf 1009,9 hPa 0,0 l/m 0 min 0 min 7 W/m 20,9 km/h (4 Bft) 97,87 %
04.08.2016 06:00 15,8 C 15,6 C 13,9 C 94 % 3 lf 1009,8 hPa 0,0 l/m 0 min 0 min 9 W/m 12,6 km/h (3 Bft) 100,00 %
04.08.2016 06:02 15,8 C 15,6 C 13,9 C 94 % 3 lf 1009,9 hPa 0,0 l/m 0 min 0 min 9 W/m 10,5 km/h (2 Bft) 100,00 %
04.08.2016 06:04 15,8 C 15,6 C 13,9 C 94 % 3 lf 1009,8 hPa 0,0 l/m 0 min 0 min 10 W/m 12,6 km/h (3 Bft) 100,00 %
04.08.2016 06:06 15,8 C 15,6 C 13,9 C 94 % 3 lf 1009,9 hPa 0,0 l/m 0 min 0 min 11 W/m 18,8 km/h (3 Bft) 97,37 %
04.08.2016 06:08 15,7 C 15,6 C 13,9 C 94 % 3 lf 1009,9 hPa 0,0 l/m 0 min 0 min 11 W/m 18,8 km/h (3 Bft) 97,87 %
04.08.2016 06:10 15,7 C 15,6 C 13,9 C 94 % 3 lf 1009,9 hPa 0,0 l/m 0 min 0 min 12 W/m 14,6 km/h (3 Bft) 95,74 %
04.08.2016 06:12 15,7 C 15,6 C 13,9 C 94 % 3 lf 1009,9 hPa 0,0 l/m 0 min 0 min 14 W/m 16,7 km/h (3 Bft) 100,00 %
04.08.2016 06:14 15,7 C 15,6 C 13,9 C 94 % 3 lf 1009,9 hPa 0,0 l/m 0 min 0 min 16 W/m 14,6 km/h (3 Bft) 100,00 %
04.08.2016 06:16 15,7 C 15,6 C 13,9 C 94 % 2 lf 1009,8 hPa 0,0 l/m 0 min 0 min 17 W/m 16,7 km/h (3 Bft) 97,83 %
04.08.2016 06:18 15,7 C 15,6 C 13,9 C 94 % 2 lf 1009,8 hPa 0,0 l/m 2 min 0 min 19 W/m 12,6 km/h (3 Bft) 95,74 %
04.08.2016 06:20 15,7 C 15,6 C 13,9 C 94 % 2 lf 1009,7 hPa 0,0 l/m 2 min 0 min 22 W/m 12,6 km/h (3 Bft) 100,00 %
04.08.2016 06:22 15,7 C 15,6 C 13,9 C 94 % 2 lf 1009,7 hPa 0,0 l/m 2 min 0 min 23 W/m 16,7 km/h (3 Bft) 100,00 %
04.08.2016 06:24 15,7 C 15,6 C 13,9 C 94 % 2 lf 1009,7 hPa 0,0 l/m 2 min 0 min 24 W/m 18,8 km/h (3 Bft) 95,74 %
04.08.2016 06:26 15,7 C 15,6 C 13,9 C 94 % 2 lf 1009,9 hPa 0,0 l/m 2 min 0 min 25 W/m 6,3 km/h (2 Bft) 93,48 %
04.08.2016 06:28 15,7 C 15,6 C 13,9 C 93 % 2 lf 1009,8 hPa 0,0 l/m 2 min 0 min 25 W/m 8,4 km/h (2 Bft) 93,62 %
04.08.2016 06:30 15,7 C 15,6 C 13,9 C 93 % 2 lf 1009,9 hPa 0,0 l/m 2 min 0 min 27 W/m 14,6 km/h (3 Bft) 91,49 %
04.08.2016 06:32 15,7 C 15,6 C 13,9 C 93 % 2 lf 1009,9 hPa 0,0 l/m 2 min 0 min 30 W/m 12,6 km/h (3 Bft) 91,49 %
04.08.2016 06:34 15,7 C 15,6 C 13,9 C 93 % 2 lf 1009,9 hPa 0,0 l/m 2 min 0 min 32 W/m 10,5 km/h (2 Bft) 93,62 %
04.08.2016 06:36 15,7 C 16,1 C 13,9 C 93 % 2 lf 1009,9 hPa 0,0 l/m 2 min 0 min 34 W/m 10,5 km/h (2 Bft) 89,47 %
04.08.2016 06:38 15,7 C 16,1 C 13,9 C 93 % 2 lf 1009,9 hPa 0,0 l/m 2 min 0 min 38 W/m 8,4 km/h (2 Bft) 87,23 %
04.08.2016 06:40 15,7 C 16,1 C 13,9 C 93 % 2 lf 1010,0 hPa 0,0 l/m 2 min 0 min 42 W/m 12,6 km/h (3 Bft) 91,49 %
04.08.2016 06:42 15,7 C 16,1 C 13,9 C 93 % 2 lf 1010,0 hPa 0,0 l/m 2 min 0 min 46 W/m 12,6 km/h (3 Bft) 87,23 %
04.08.2016 06:44 15,7 C 16,1 C 13,9 C 93 % 2 lf 1010,0 hPa 0,0 l/m 2 min 0 min 47 W/m 14,6 km/h (3 Bft) 89,36 %
04.08.2016 06:46 15,7 C 16,1 C 13,9 C 93 % 2 lf 1009,8 hPa 0,0 l/m 2 min 0 min 49 W/m 14,6 km/h (3 Bft) 91,30 %
04.08.2016 06:48 15,7 C 16,1 C 13,9 C 93 % 2 lf 1009,8 hPa 0,0 l/m 2 min 0 min 52 W/m 14,6 km/h (3 Bft) 91,49 %
04.08.2016 06:50 15,7 C 16,1 C 13,9 C 93 % 2 lf 1009,8 hPa 0,0 l/m 2 min 0 min 54 W/m 16,7 km/h (3 Bft) 91,49 %
04.08.2016 06:52 15,7 C 16,1 C 13,9 C 93 % 2 lf 1009,8 hPa 0,0 l/m 2 min 0 min 58 W/m 14,6 km/h (3 Bft) 89,36 %
04.08.2016 06:54 15,7 C 16,1 C 14,4 C 93 % 2 lf 1009,8 hPa 0,0 l/m 2 min 0 min 66 W/m 16,7 km/h (3 Bft) 89,36 %
04.08.2016 06:56 15,7 C 16,1 C 14,4 C 93 % 2 lf 1009,8 hPa 0,0 l/m 2 min 0 min 75 W/m 18,8 km/h (3 Bft) 93,62 %
04.08.2016 06:58 15,7 C 16,1 C 14,4 C 93 % 2 lf 1009,9 hPa 0,0 l/m 2 min 0 min 86 W/m 16,7 km/h (3 Bft) 89,13 %
04.08.2016 07:00 15,7 C 16,1 C 14,4 C 93 % 2 lf 1009,9 hPa 0,0 l/m 2 min 0 min 101 W/m 18,8 km/h (3 Bft) 89,36 %
04.08.2016 07:02 15,8 C 16,1 C 14,4 C 93 % 1 lf 1009,7 hPa 0,0 l/m 2 min 0 min 90 W/m 20,9 km/h (4 Bft) 91,49 %
04.08.2016 07:04 15,8 C 16,1 C 14,4 C 93 % 2 lf 1009,7 hPa 0,0 l/m 2 min 0 min 91 W/m 16,7 km/h (3 Bft) 89,36 %
04.08.2016 07:06 15,8 C 16,7 C 14,4 C 93 % 1 lf 1009,7 hPa 0,0 l/m 2 min 0 min 99 W/m 16,7 km/h (3 Bft) 93,75 %
04.08.2016 07:08 15,8 C 16,7 C 14,4 C 93 % 1 lf 1009,8 hPa 0,0 l/m 2 min 0 min 119 W/m 18,8 km/h (3 Bft) 89,36 %
04.08.2016 07:10 15,8 C 16,7 C 14,4 C 93 % 1 lf 1009,9 hPa 0,0 l/m 2 min 0 min 116 W/m 16,7 km/h (3 Bft) 91,30 %
04.08.2016 07:12 15,8 C 16,7 C 15,0 C 93 % 1 lf 1009,9 hPa 0,0 l/m 2 min 0 min 124 W/m 23,0 km/h (4 Bft) 93,62 %
04.08.2016 07:14 15,9 C 16,7 C 15,0 C 93 % 1 lf 1010,0 hPa 0,0 l/m 2 min 0 min 94 W/m 23,0 km/h (4 Bft) 89,36 %
04.08.2016 07:16 15,9 C 16,7 C 15,0 C 93 % 1 lf 1010,0 hPa 0,0 l/m 2 min 0 min 93 W/m 16,7 km/h (3 Bft) 93,62 %
04.08.2016 07:18 15,9 C 16,7 C 15,0 C 93 % 1 lf 1010,1 hPa 0,0 l/m 2 min 0 min 93 W/m 18,8 km/h (3 Bft) 95,74 %
04.08.2016 07:20 15,9 C 16,7 C 15,0 C 93 % 1 lf 1010,0 hPa 0,0 l/m 2 min 0 min 97 W/m 16,7 km/h (3 Bft) 93,62 %
04.08.2016 07:22 15,9 C 16,7 C 15,0 C 93 % 1 lf 1010,0 hPa 0,0 l/m 2 min 0 min 103 W/m 18,8 km/h (3 Bft) 93,48 %
04.08.2016 07:24 16,0 C 16,7 C 15,0 C 93 % 1 lf 1010,0 hPa 0,0 l/m 2 min 0 min 101 W/m 23,0 km/h (4 Bft) 97,87 %
04.08.2016 07:26 16,0 C 16,7 C 15,0 C 93 % 1 lf 1010,1 hPa 0,0 l/m 2 min 0 min 100 W/m 25,1 km/h (4 Bft) 97,87 %
04.08.2016 07:28 16,0 C 16,7 C 15,0 C 92 % 1 lf 1010,1 hPa 0,0 l/m 2 min 0 min 112 W/m 23,0 km/h (4 Bft) 100,00 %
04.08.2016 07:30 16,0 C 16,7 C 15,0 C 92 % 1 lf 1010,0 hPa 0,0 l/m 2 min 0 min 132 W/m 29,3 km/h (5 Bft) 95,74 %
04.08.2016 07:32 16,0 C 16,7 C 15,0 C 92 % 1 lf 1010,0 hPa 0,0 l/m 2 min 0 min 128 W/m 20,9 km/h (4 Bft) 95,65 %
04.08.2016 07:34 16,1 C 16,7 C 15,0 C 92 % 1 lf 1010,0 hPa 0,0 l/m 2 min 0 min 111 W/m 18,8 km/h (3 Bft) 97,87 %
04.08.2016 07:36 16,1 C 16,7 C 15,0 C 92 % 1 lf 1010,0 hPa 0,0 l/m 2 min 0 min 111 W/m 16,7 km/h (3 Bft) 100,00 %
04.08.2016 07:38 16,1 C 16,7 C 15,0 C 92 % 1 lf 1010,0 hPa 0,0 l/m 0 min 0 min 108 W/m 20,9 km/h (4 Bft) 100,00 %
04.08.2016 07:40 16,1 C 16,7 C 15,0 C 91 % 1 lf 1010,0 hPa 0,0 l/m 0 min 0 min 106 W/m 25,1 km/h (4 Bft) 95,74 %
04.08.2016 07:42 16,1 C 16,7 C 15,0 C 91 % 1 lf 1010,0 hPa 0,0 l/m 2 min 0 min 123 W/m 14,6 km/h (3 Bft) 100,00 %
04.08.2016 07:44 16,1 C 16,7 C 15,0 C 91 % 1 lf 1010,0 hPa 0,0 l/m 0 min 0 min 107 W/m 18,8 km/h (3 Bft) 95,74 %
04.08.2016 07:46 16,1 C 16,7 C 15,0 C 91 % 1 lf 1010,0 hPa 0,0 l/m 0 min 0 min 88 W/m 25,1 km/h (4 Bft) 100,00 %
04.08.2016 07:48 16,1 C 16,7 C 15,0 C 91 % 1 lf 1010,1 hPa 0,0 l/m 0 min 0 min 87 W/m 12,6 km/h (3 Bft) 100,00 %
04.08.2016 07:50 16,1 C 16,7 C 15,0 C 91 % 1 lf 1010,0 hPa 0,0 l/m 0 min 0 min 82 W/m 10,5 km/h (2 Bft) 100,00 %
04.08.2016 07:52 16,1 C 16,7 C 15,0 C 91 % 1 lf 1010,2 hPa 0,0 l/m 0 min 0 min 82 W/m 14,6 km/h (3 Bft) 97,87 %
04.08.2016 07:54 16,2 C 16,7 C 15,0 C 91 % 1 lf 1010,2 hPa 0,0 l/m 0 min 0 min 88 W/m 14,6 km/h (3 Bft) 97,87 %
04.08.2016 07:56 16,2 C 16,7 C 15,0 C 91 % 1 lf 1010,2 hPa 0,0 l/m 0 min 0 min 93 W/m 12,6 km/h (3 Bft) 100,00 %
04.08.2016 07:58 16,2 C 16,7 C 15,0 C 91 % 1 lf 1010,1 hPa 0,0 l/m 0 min 0 min 98 W/m 16,7 km/h (3 Bft) 100,00 %
04.08.2016 08:00 16,2 C 16,7 C 15,0 C 91 % 1 lf 1010,1 hPa 0,0 l/m 0 min 0 min 103 W/m 14,6 km/h (3 Bft) 97,83 %
04.08.2016 08:02 16,2 C 16,7 C 15,0 C 91 % 1 lf 1010,1 hPa 0,0 l/m 0 min 0 min 104 W/m 14,6 km/h (3 Bft) 97,87 %
04.08.2016 08:04 16,2 C 16,7 C 15,0 C 91 % 1 lf 1010,0 hPa 0,0 l/m 0 min 0 min 104 W/m 14,6 km/h (3 Bft) 100,00 %
04.08.2016 08:06 16,2 C 16,7 C 15,0 C 91 % 1 lf 1010,1 hPa 0,0 l/m 0 min 0 min 111 W/m 14,6 km/h (3 Bft) 100,00 %
04.08.2016 08:08 16,2 C 16,7 C 15,6 C 91 % 1 lf 1010,3 hPa 0,0 l/m 0 min 0 min 111 W/m 10,5 km/h (2 Bft) 91,49 %
04.08.2016 08:10 16,2 C 17,2 C 15,6 C 91 % 1 lf 1010,2 hPa 0,0 l/m 0 min 0 min 113 W/m 16,7 km/h (3 Bft) 100,00 %
04.08.2016 08:12 16,3 C 17,2 C 15,6 C 91 % 1 lf 1010,3 hPa 0,0 l/m 0 min 0 min 118 W/m 18,8 km/h (3 Bft) 97,87 %
04.08.2016 08:14 16,2 C 17,2 C 15,6 C 91 % 1 lf 1010,2 hPa 0,0 l/m 0 min 0 min 125 W/m 23,0 km/h (4 Bft) 100,00 %
04.08.2016 08:16 16,3 C 17,2 C 15,6 C 91 % 1 lf 1010,2 hPa 0,0 l/m 0 min 0 min 132 W/m 14,6 km/h (3 Bft) 95,74 %
04.08.2016 08:18 16,3 C 17,2 C 15,6 C 91 % 1 lf 1010,2 hPa 0,0 l/m 0 min 0 min 140 W/m 18,8 km/h (3 Bft) 100,00 %
04.08.2016 08:20 16,3 C 17,2 C 15,6 C 91 % 1 lf 1010,2 hPa 0,0 l/m 0 min 0 min 146 W/m 18,8 km/h (3 Bft) 97,83 %
04.08.2016 08:22 16,3 C 17,2 C 16,1 C 91 % 1 lf 1010,3 hPa 0,0 l/m 0 min 0 min 154 W/m 18,8 km/h (3 Bft) 100,00 %
04.08.2016 08:24 16,3 C 17,2 C 16,1 C 91 % 1 lf 1010,3 hPa 0,0 l/m 0 min 0 min 165 W/m 20,9 km/h (4 Bft) 100,00 %
04.08.2016 08:26 16,3 C 17,2 C 16,1 C 91 % 1 lf 1010,3 hPa 0,0 l/m 2 min 0 min 172 W/m 20,9 km/h (4 Bft) 95,74 %
04.08.2016 08:28 16,3 C 17,8 C 16,1 C 90 % 1 lf 1010,3 hPa 0,0 l/m 2 min 0 min 176 W/m 16,7 km/h (3 Bft) 95,74 %
04.08.2016 08:30 16,3 C 17,8 C 16,1 C 90 % 1 lf 1010,3 hPa 0,0 l/m 2 min 0 min 175 W/m 12,6 km/h (3 Bft) 97,87 %
04.08.2016 08:32 16,3 C 17,8 C 16,1 C 90 % 1 lf 1010,2 hPa 0,0 l/m 0 min 0 min 163 W/m 10,5 km/h (2 Bft) 95,65 %
04.08.2016 08:34 16,4 C 17,8 C 16,1 C 90 % 1 lf 1010,2 hPa 0,0 l/m 0 min 0 min 147 W/m 16,7 km/h (3 Bft) 97,87 %
04.08.2016 08:36 16,4 C 17,8 C 16,1 C 90 % 1 lf 1010,2 hPa 0,0 l/m 0 min 0 min 133 W/m 12,6 km/h (3 Bft) 98,00 %
04.08.2016 08:38 16,4 C 17,2 C 16,1 C 90 % 1 lf 1010,2 hPa 0,0 l/m 0 min 0 min 127 W/m 12,6 km/h (3 Bft) 97,87 %
04.08.2016 08:40 16,4 C 17,2 C 16,1 C 90 % 1 lf 1010,2 hPa 0,0 l/m 0 min 0 min 127 W/m 10,5 km/h (2 Bft) 97,87 %
04.08.2016 08:42 16,4 C 17,2 C 16,1 C 90 % 1 lf 1010,2 hPa 0,0 l/m 0 min 0 min 128 W/m 10,5 km/h (2 Bft) 97,87 %
04.08.2016 08:44 16,5 C 17,2 C 16,1 C 90 % 1 lf 1010,2 hPa 0,0 l/m 0 min 0 min 129 W/m 14,6 km/h (3 Bft) 95,65 %
04.08.2016 08:46 16,5 C 17,2 C 16,1 C 90 % 1 lf 1010,1 hPa 0,0 l/m 0 min 0 min 131 W/m 14,6 km/h (3 Bft) 97,87 %
04.08.2016 08:48 16,5 C 17,2 C 16,1 C 90 % 1 lf 1010,1 hPa 0,0 l/m 0 min 0 min 133 W/m 14,6 km/h (3 Bft) 97,87 %
04.08.2016 08:50 16,5 C 17,2 C 16,1 C 90 % 1 lf 1010,1 hPa 0,0 l/m 0 min 0 min 139 W/m 10,5 km/h (2 Bft) 97,87 %
04.08.2016 08:52 16,5 C 17,2 C 16,1 C 90 % 1 lf 1010,2 hPa 0,0 l/m 0 min 0 min 147 W/m 16,7 km/h (3 Bft) 97,87 %
04.08.2016 08:54 16,5 C 17,2 C 16,1 C 90 % 1 lf 1010,2 hPa 0,0 l/m 0 min 0 min 154 W/m 18,8 km/h (3 Bft) 93,62 %
04.08.2016 08:56 16,5 C 17,2 C 16,1 C 90 % 1 lf 1010,2 hPa 0,0 l/m 0 min 0 min 165 W/m 14,6 km/h (3 Bft) 95,65 %
04.08.2016 08:58 16,6 C 17,8 C 16,1 C 90 % 1 lf 1010,3 hPa 0,0 l/m 0 min 0 min 172 W/m 20,9 km/h (4 Bft) 97,87 %
04.08.2016 09:00 16,6 C 17,8 C 16,7 C 90 % 1 lf 1010,3 hPa 0,0 l/m 0 min 0 min 176 W/m 12,6 km/h (3 Bft) 97,87 %
04.08.2016 09:02 16,6 C 17,8 C 16,7 C 90 % 1 lf 1010,4 hPa 0,0 l/m 0 min 0 min 178 W/m 14,6 km/h (3 Bft) 97,87 %
04.08.2016 09:04 16,6 C 17,8 C 16,7 C 90 % 1 lf 1010,5 hPa 0,0 l/m 0 min 0 min 183 W/m 16,7 km/h (3 Bft) 100,00 %
04.08.2016 09:06 16,6 C 17,8 C 16,7 C 90 % 1 lf 1010,4 hPa 0,0 l/m 0 min 0 min 183 W/m 16,7 km/h (3 Bft) 97,83 %
04.08.2016 09:08 16,6 C 17,8 C 16,7 C 90 % 1 lf 1010,5 hPa 0,0 l/m 0 min 0 min 184 W/m 8,4 km/h (2 Bft) 100,00 %
04.08.2016 09:10 16,7 C 17,8 C 16,7 C 90 % 1 lf 1010,4 hPa 0,0 l/m 0 min 0 min 185 W/m 16,7 km/h (3 Bft) 97,87 %
04.08.2016 09:12 16,7 C 17,8 C 16,7 C 90 % 0 lf 1010,5 hPa 0,0 l/m 0 min 0 min 181 W/m 16,7 km/h (3 Bft) 97,87 %
04.08.2016 09:14 16,7 C 18,3 C 16,7 C 90 % 0 lf 1010,6 hPa 0,0 l/m 0 min 0 min 176 W/m 20,9 km/h (4 Bft) 97,87 %
04.08.2016 09:16 16,7 C 18,3 C 16,7 C 90 % 0 lf 1010,7 hPa 0,0 l/m 0 min 0 min 181 W/m 18,8 km/h (3 Bft) 100,00 %
04.08.2016 09:18 16,8 C 17,8 C 16,7 C 90 % 1 lf 1010,8 hPa 0,0 l/m 0 min 0 min 184 W/m 14,6 km/h (3 Bft) 100,00 %
04.08.2016 09:20 16,8 C 18,3 C 16,7 C 90 % 0 lf 1010,8 hPa 0,0 l/m 0 min 0 min 182 W/m 10,5 km/h (2 Bft) 100,00 %
04.08.2016 09:22 16,8 C 18,3 C 17,2 C 90 % 1 lf 1010,8 hPa 0,0 l/m 0 min 0 min 170 W/m 14,6 km/h (3 Bft) 95,74 %
04.08.2016 09:24 16,8 C 18,3 C 16,7 C 90 % 1 lf 1010,7 hPa 0,0 l/m 0 min 0 min 163 W/m 20,9 km/h (4 Bft) 95,74 %
04.08.2016 09:26 16,8 C 18,9 C 16,7 C 90 % 1 lf 1010,7 hPa 0,0 l/m 0 min 0 min 178 W/m 16,7 km/h (3 Bft) 97,87 %
04.08.2016 09:28 16,9 C 18,3 C 16,7 C 90 % 0 lf 1010,7 hPa 0,0 l/m 0 min 0 min 195 W/m 27,2 km/h (4 Bft) 95,74 %
04.08.2016 09:30 16,9 C 18,3 C 16,7 C 90 % 0 lf 1010,8 hPa 0,0 l/m 0 min 0 min 197 W/m 18,8 km/h (3 Bft) 91,49 %
04.08.2016 09:32 16,9 C 18,3 C 16,7 C 89 % 0 lf 1010,8 hPa 0,0 l/m 0 min 0 min 193 W/m 25,1 km/h (4 Bft) 93,48 %
04.08.2016 09:34 16,9 C 18,3 C 16,7 C 89 % 0 lf 1010,8 hPa 0,0 l/m 0 min 0 min 196 W/m 25,1 km/h (4 Bft) 95,74 %
04.08.2016 09:36 16,9 C 18,3 C 17,2 C 89 % 0 lf 1010,7 hPa 0,0 l/m 0 min 0 min 220 W/m 27,2 km/h (4 Bft) 95,83 %
04.08.2016 09:38 16,9 C 18,3 C 17,2 C 89 % 0 lf 1010,7 hPa 0,0 l/m 0 min 0 min 250 W/m 20,9 km/h (4 Bft) 95,74 %
04.08.2016 09:40 16,9 C 18,9 C 17,2 C 89 % 0 lf 1010,9 hPa 0,0 l/m 0 min 0 min 236 W/m 14,6 km/h (3 Bft) 95,74 %
04.08.2016 09:42 16,9 C 18,9 C 17,2 C 89 % 0 lf 1010,8 hPa 0,0 l/m 0 min 0 min 226 W/m 18,8 km/h (3 Bft) 95,65 %
04.08.2016 09:44 17,0 C 18,9 C 17,2 C 89 % 0 lf 1010,7 hPa 0,0 l/m 0 min 0 min 241 W/m 20,9 km/h (4 Bft) 91,49 %
04.08.2016 09:46 17,1 C 18,9 C 17,8 C 89 % 0 lf 1010,8 hPa 0,0 l/m 2 min 0 min 264 W/m 12,6 km/h (3 Bft) 93,62 %
04.08.2016 09:48 17,1 C 18,9 C 17,8 C 89 % 0 lf 1010,9 hPa 0,0 l/m 2 min 0 min 273 W/m 23,0 km/h (4 Bft) 95,74 %
04.08.2016 09:50 17,1 C 18,9 C 17,8 C 88 % 0 lf 1010,9 hPa 0,0 l/m 2 min 0 min 266 W/m 25,1 km/h (4 Bft) 93,62 %
04.08.2016 09:52 17,1 C 18,9 C 17,2 C 88 % 0 lf 1010,9 hPa 0,0 l/m 2 min 0 min 281 W/m 27,2 km/h (4 Bft) 93,62 %
04.08.2016 09:54 17,1 C 18,9 C 17,8 C 87 % 0 lf 1010,9 hPa 0,0 l/m 2 min 0 min 317 W/m 23,0 km/h (4 Bft) 97,83 %
04.08.2016 09:56 17,2 C 20,0 C 17,8 C 87 % 0 lf 1010,9 hPa 0,0 l/m 2 min 0 min 341 W/m 20,9 km/h (4 Bft) 95,74 %
04.08.2016 09:58 17,2 C 21,7 C 18,3 C 87 % 0 lf 1010,9 hPa 0,0 l/m 2 min 0 min 490 W/m 16,7 km/h (3 Bft) 91,49 %
04.08.2016 10:00 17,3 C 22,2 C 19,4 C 87 % 0 lf 1010,8 hPa 0,0 l/m 2 min 0 min 505 W/m 16,7 km/h (3 Bft) 93,62 %
04.08.2016 10:02 17,4 C 22,8 C 20,0 C 88 % 0 lf 1010,8 hPa 0,0 l/m 2 min 0 min 440 W/m 23,0 km/h (4 Bft) 91,49 %
04.08.2016 10:04 17,4 C 22,2 C 19,4 C 87 % 0 lf 1010,8 hPa 0,0 l/m 2 min 0 min 468 W/m 31,4 km/h (5 Bft) 95,65 %
04.08.2016 10:06 17,5 C 21,7 C 18,9 C 86 % 0 lf 1010,9 hPa 0,0 l/m 2 min 0 min 407 W/m 25,1 km/h (4 Bft) 94,44 %
04.08.2016 10:08 17,6 C 21,1 C 18,9 C 86 % 0 lf 1010,9 hPa 0,0 l/m 2 min 0 min 318 W/m 18,8 km/h (3 Bft) 91,30 %
04.08.2016 10:10 17,6 C 20,6 C 18,9 C 86 % 0 lf 1010,9 hPa 0,0 l/m 0 min 0 min 286 W/m 12,6 km/h (3 Bft) 89,36 %
04.08.2016 10:12 17,7 C 19,4 C 18,3 C 85 % 0 lf 1010,8 hPa 0,0 l/m 0 min 0 min 256 W/m 23,0 km/h (4 Bft) 93,62 %
04.08.2016 10:14 17,7 C 19,4 C 18,3 C 85 % 0 lf 1010,8 hPa 0,0 l/m 0 min 0 min 239 W/m 25,1 km/h (4 Bft) 95,74 %
04.08.2016 10:16 17,7 C 19,4 C 18,3 C 85 % 0 lf 1010,9 hPa 0,0 l/m 0 min 0 min 234 W/m 23,0 km/h (4 Bft) 95,74 %
04.08.2016 10:18 17,7 C 19,4 C 18,3 C 85 % 0 lf 1010,9 hPa 0,0 l/m 0 min 0 min 234 W/m 16,7 km/h (3 Bft) 91,49 %
04.08.2016 10:20 17,7 C 18,9 C 17,8 C 85 % 0 lf 1011,0 hPa 0,0 l/m 0 min 0 min 238 W/m 27,2 km/h (4 Bft) 97,83 %
04.08.2016 10:22 17,7 C 18,9 C 17,8 C 84 % 0 lf 1011,0 hPa 0,0 l/m 0 min 0 min 247 W/m 23,0 km/h (4 Bft) 91,49 %
04.08.2016 10:24 17,7 C 18,9 C 17,8 C 84 % 0 lf 1011,0 hPa 0,0 l/m 0 min 0 min 258 W/m 27,2 km/h (4 Bft) 95,74 %
04.08.2016 10:26 17,7 C 18,9 C 17,8 C 84 % 0 lf 1011,0 hPa 0,0 l/m 0 min 0 min 267 W/m 16,7 km/h (3 Bft) 97,87 %
04.08.2016 10:28 17,7 C 18,9 C 17,8 C 84 % 0 lf 1011,0 hPa 0,0 l/m 0 min 0 min 257 W/m 23,0 km/h (4 Bft) 97,87 %
04.08.2016 10:30 17,7 C 18,9 C 17,8 C 84 % 0 lf 1011,0 hPa 0,0 l/m 0 min 0 min 237 W/m 23,0 km/h (4 Bft) 93,62 %
04.08.2016 10:32 17,7 C 18,9 C 17,8 C 84 % 0 lf 1010,9 hPa 0,0 l/m 0 min 0 min 231 W/m 23,0 km/h (4 Bft) 93,48 %
04.08.2016 10:34 17,7 C 18,9 C 17,8 C 84 % 0 lf 1010,9 hPa 0,0 l/m 0 min 0 min 198 W/m 14,6 km/h (3 Bft) 91,49 %
04.08.2016 10:36 17,7 C 18,9 C 17,8 C 85 % 0 lf 1010,9 hPa 0,0 l/m 0 min 0 min 189 W/m 18,8 km/h (3 Bft) 94,64 %
04.08.2016 10:38 17,7 C 18,9 C 17,8 C 85 % 0 lf 1010,9 hPa 0,0 l/m 0 min 0 min 235 W/m 23,0 km/h (4 Bft) 95,74 %
04.08.2016 10:40 17,7 C 18,9 C 18,3 C 85 % 0 lf 1010,9 hPa 0,0 l/m 0 min 0 min 289 W/m 16,7 km/h (3 Bft) 91,49 %
04.08.2016 10:42 17,7 C 19,4 C 18,3 C 85 % 0 lf 1011,0 hPa 0,0 l/m 0 min 0 min 303 W/m 23,0 km/h (4 Bft) 97,83 %
04.08.2016 10:44 17,7 C 19,4 C 18,3 C 85 % 0 lf 1011,0 hPa 0,0 l/m 0 min 0 min 307 W/m 25,1 km/h (4 Bft) 95,74 %
04.08.2016 10:46 17,7 C 19,4 C 18,3 C 85 % 0 lf 1011,0 hPa 0,0 l/m 0 min 0 min 292 W/m 25,1 km/h (4 Bft) 93,62 %
04.08.2016 10:48 17,7 C 19,4 C 18,3 C 84 % 0 lf 1010,9 hPa 0,0 l/m 0 min 0 min 292 W/m 20,9 km/h (4 Bft) 95,74 %
04.08.2016 10:50 17,7 C 19,4 C 18,3 C 85 % 0 lf 1010,9 hPa 0,0 l/m 0 min 0 min 297 W/m 16,7 km/h (3 Bft) 95,74 %
04.08.2016 10:52 17,7 C 19,4 C 18,3 C 85 % 0 lf 1010,9 hPa 0,0 l/m 0 min 0 min 293 W/m 18,8 km/h (3 Bft) 95,83 %
04.08.2016 10:54 17,8 C 20,0 C 18,3 C 85 % 0 lf 1010,9 hPa 0,0 l/m 0 min 0 min 288 W/m 20,9 km/h (4 Bft) 93,48 %
04.08.2016 10:56 17,8 C 20,0 C 18,9 C 85 % 0 lf 1010,9 hPa 0,0 l/m 0 min 0 min 294 W/m 16,7 km/h (3 Bft) 93,62 %
04.08.2016 10:58 17,8 C 20,0 C 18,9 C 85 % 0 lf 1010,9 hPa 0,0 l/m 0 min 0 min 316 W/m 14,6 km/h (3 Bft) 95,74 %
04.08.2016 11:00 17,9 C 20,0 C 18,9 C 85 % 0 lf 1010,9 hPa 0,0 l/m 2 min 0 min 346 W/m 18,8 km/h (3 Bft) 95,74 %
04.08.2016 11:02 17,9 C 20,6 C 18,9 C 85 % 0 lf 1010,9 hPa 0,0 l/m 2 min 0 min 353 W/m 16,7 km/h (3 Bft) 91,49 %
04.08.2016 11:04 17,9 C 20,6 C 18,9 C 85 % 0 lf 1010,9 hPa 0,0 l/m 0 min 0 min 324 W/m 16,7 km/h (3 Bft) 100,00 %
04.08.2016 11:06 18,0 C 20,6 C 19,4 C 85 % 0 lf 1010,9 hPa 0,0 l/m 2 min 0 min 345 W/m 16,7 km/h (3 Bft) 97,87 %
04.08.2016 11:08 18,0 C 20,6 C 19,4 C 85 % 0 lf 1010,8 hPa 0,0 l/m 0 min 0 min 334 W/m 16,7 km/h (3 Bft) 97,87 %
04.08.2016 11:10 18,1 C 20,6 C 19,4 C 85 % 0 lf 1010,8 hPa 0,0 l/m 2 min 0 min 359 W/m 18,8 km/h (3 Bft) 97,87 %
04.08.2016 11:12 18,1 C 21,1 C 20,0 C 85 % 0 lf 1010,8 hPa 0,0 l/m 2 min 0 min 403 W/m 10,5 km/h (2 Bft) 100,00 %
04.08.2016 11:14 18,2 C 21,7 C 20,0 C 85 % 0 lf 1010,8 hPa 0,0 l/m 2 min 0 min 430 W/m 12,6 km/h (3 Bft) 97,87 %
04.08.2016 11:16 18,2 C 22,2 C 20,0 C 85 % 0 lf 1010,7 hPa 0,0 l/m 2 min 0 min 439 W/m 16,7 km/h (3 Bft) 97,83 %
04.08.2016 11:18 18,3 C 21,1 C 20,0 C 84 % 0 lf 1010,7 hPa 0,0 l/m 2 min 0 min 386 W/m 29,3 km/h (5 Bft) 97,87 %
04.08.2016 11:20 18,3 C 21,1 C 19,4 C 84 % 0 lf 1010,7 hPa 0,0 l/m 2 min 0 min 383 W/m 23,0 km/h (4 Bft) 100,00 %
04.08.2016 11:22 18,3 C 20,6 C 19,4 C 83 % 0 lf 1010,7 hPa 0,0 l/m 2 min 0 min 362 W/m 20,9 km/h (4 Bft) 97,87 %
04.08.2016 11:24 18,3 C 20,6 C 18,9 C 83 % 0 lf 1010,7 hPa 0,0 l/m 0 min 0 min 327 W/m 20,9 km/h (4 Bft) 100,00 %
04.08.2016 11:26 18,3 C 20,6 C 18,9 C 83 % 0 lf 1010,7 hPa 0,0 l/m 0 min 0 min 296 W/m 16,7 km/h (3 Bft) 97,87 %
04.08.2016 11:28 18,4 C 20,0 C 18,9 C 83 % 0 lf 1010,8 hPa 0,0 l/m 0 min 0 min 273 W/m 20,9 km/h (4 Bft) 100,00 %
04.08.2016 11:30 18,4 C 20,0 C 18,9 C 83 % 0 lf 1010,9 hPa 0,0 l/m 0 min 0 min 251 W/m 18,8 km/h (3 Bft) 100,00 %
04.08.2016 11:32 18,4 C 20,0 C 19,4 C 83 % 0 lf 1010,9 hPa 0,0 l/m 0 min 0 min 249 W/m 12,6 km/h (3 Bft) 100,00 %
04.08.2016 11:34 18,4 C 20,6 C 19,4 C 83 % 0 lf 1010,9 hPa 0,0 l/m 0 min 0 min 233 W/m 14,6 km/h (3 Bft) 100,00 %
04.08.2016 11:36 18,4 C 19,4 C 18,9 C 83 % 0 lf 1010,9 hPa 0,0 l/m 0 min 0 min 229 W/m 18,8 km/h (3 Bft) 100,00 %
04.08.2016 11:38 18,4 C 19,4 C 18,9 C 83 % 0 lf 1010,9 hPa 0,0 l/m 0 min 0 min 231 W/m 18,8 km/h (3 Bft) 97,83 %
04.08.2016 11:40 18,4 C 19,4 C 18,9 C 82 % 0 lf 1010,9 hPa 0,0 l/m 0 min 0 min 226 W/m 23,0 km/h (4 Bft) 100,00 %
04.08.2016 11:42 18,4 C 19,4 C 18,9 C 82 % 0 lf 1011,0 hPa 0,0 l/m 0 min 0 min 226 W/m 18,8 km/h (3 Bft) 100,00 %
04.08.2016 11:44 18,4 C 19,4 C 18,9 C 82 % 0 lf 1011,0 hPa 0,0 l/m 0 min 0 min 235 W/m 16,7 km/h (3 Bft) 100,00 %
04.08.2016 11:46 18,4 C 19,4 C 18,9 C 82 % 0 lf 1011,0 hPa 0,0 l/m 0 min 0 min 244 W/m 14,6 km/h (3 Bft) 100,00 %
04.08.2016 11:48 18,4 C 20,0 C 18,9 C 82 % 0 lf 1011,0 hPa 0,0 l/m 0 min 0 min 256 W/m 20,9 km/h (4 Bft) 93,62 %
04.08.2016 11:50 18,4 C 20,0 C 18,9 C 83 % 0 lf 1011,0 hPa 0,0 l/m 0 min 0 min 257 W/m 14,6 km/h (3 Bft) 97,87 %
04.08.2016 11:52 18,4 C 20,0 C 18,9 C 83 % 0 lf 1011,0 hPa 0,0 l/m 0 min 0 min 257 W/m 10,5 km/h (2 Bft) 97,83 %
04.08.2016 11:54 18,4 C 20,0 C 19,4 C 83 % 0 lf 1011,0 hPa 0,0 l/m 0 min 0 min 264 W/m 16,7 km/h (3 Bft) 97,87 %
04.08.2016 11:56 18,4 C 19,4 C 18,9 C 83 % 0 lf 1011,0 hPa 0,0 l/m 0 min 0 min 271 W/m 18,8 km/h (3 Bft) 95,74 %
04.08.2016 11:58 18,4 C 20,0 C 18,9 C 83 % 0 lf 1011,1 hPa 0,0 l/m 0 min 0 min 272 W/m 18,8 km/h (3 Bft) 100,00 %
04.08.2016 12:00 18,4 C 20,0 C 18,9 C 83 % 0 lf 1011,0 hPa 0,0 l/m 0 min 0 min 271 W/m 14,6 km/h (3 Bft) 100,00 %
04.08.2016 12:02 18,4 C 20,0 C 18,9 C 83 % 0 lf 1011,1 hPa 0,0 l/m 0 min 0 min 271 W/m 18,8 km/h (3 Bft) 97,87 %
04.08.2016 12:04 18,4 C 20,0 C 18,9 C 83 % 0 lf 1011,1 hPa 0,0 l/m 0 min 0 min 270 W/m 25,1 km/h (4 Bft) 100,00 %
04.08.2016 12:06 18,4 C 19,4 C 18,3 C 82 % 0 lf 1011,1 hPa 0,0 l/m 0 min 0 min 271 W/m 33,5 km/h (5 Bft) 100,00 %
04.08.2016 12:08 18,4 C 19,4 C 18,9 C 82 % 0 lf 1011,1 hPa 0,0 l/m 0 min 0 min 269 W/m 20,9 km/h (4 Bft) 95,74 %
04.08.2016 12:10 18,4 C 20,0 C 18,9 C 82 % 0 lf 1011,1 hPa 0,0 l/m 0 min 0 min 270 W/m 16,7 km/h (3 Bft) 97,87 %
04.08.2016 12:12 18,4 C 19,4 C 18,9 C 82 % 0 lf 1011,1 hPa 0,0 l/m 0 min 0 min 269 W/m 25,1 km/h (4 Bft) 100,00 %
04.08.2016 12:14 18,4 C 19,4 C 18,9 C 81 % 0 lf 1011,0 hPa 0,0 l/m 0 min 0 min 267 W/m 18,8 km/h (3 Bft) 100,00 %
04.08.2016 12:16 18,4 C 19,4 C 18,9 C 81 % 0 lf 1011,1 hPa 0,0 l/m 0 min 0 min 274 W/m 16,7 km/h (3 Bft) 100,00 %
04.08.2016 12:18 18,4 C 19,4 C 18,9 C 81 % 0 lf 1011,1 hPa 0,0 l/m 0 min 0 min 283 W/m 16,7 km/h (3 Bft) 93,48 %
04.08.2016 12:20 18,4 C 20,0 C 18,9 C 81 % 0 lf 1011,1 hPa 0,0 l/m 0 min 0 min 282 W/m 23,0 km/h (4 Bft) 96,61 %
04.08.2016 12:22 18,3 C 20,0 C 18,9 C 81 % 0 lf 1011,1 hPa 0,0 l/m 0 min 0 min 276 W/m 20,9 km/h (4 Bft) 97,14 %
04.08.2016 12:24 18,3 C 20,0 C 18,9 C 81 % 0 lf 1011,1 hPa 0,0 l/m 0 min 0 min 272 W/m 16,7 km/h (3 Bft) 95,74 %
04.08.2016 12:26 18,3 C 20,0 C 18,9 C 81 % 0 lf 1011,1 hPa 0,0 l/m 0 min 0 min 270 W/m 18,8 km/h (3 Bft) 91,49 %
04.08.2016 12:28 18,4 C 20,0 C 18,9 C 81 % 0 lf 1011,1 hPa 0,0 l/m 0 min 0 min 261 W/m 18,8 km/h (3 Bft) 97,87 %
04.08.2016 12:30 18,3 C 19,4 C 18,9 C 81 % 0 lf 1011,1 hPa 0,0 l/m 0 min 0 min 247 W/m 29,3 km/h (5 Bft) 93,48 %
04.08.2016 12:32 18,3 C 19,4 C 18,3 C 80 % 0 lf 1011,1 hPa 0,0 l/m 0 min 0 min 247 W/m 18,8 km/h (3 Bft) 95,74 %
04.08.2016 12:34 18,3 C 19,4 C 18,3 C 80 % 0 lf 1011,1 hPa 0,0 l/m 0 min 0 min 252 W/m 27,2 km/h (4 Bft) 89,36 %
04.08.2016 12:36 18,3 C 19,4 C 18,3 C 80 % 0 lf 1011,1 hPa 0,0 l/m 0 min 0 min 258 W/m 23,0 km/h (4 Bft) 94,92 %
04.08.2016 12:38 18,3 C 19,4 C 18,3 C 80 % 0 lf 1011,2 hPa 0,0 l/m 0 min 0 min 255 W/m 23,0 km/h (4 Bft) 91,30 %
04.08.2016 12:40 18,3 C 19,4 C 18,3 C 81 % 0 lf 1011,2 hPa 0,0 l/m 0 min 0 min 255 W/m 18,8 km/h (3 Bft) 91,49 %
04.08.2016 12:42 18,3 C 20,0 C 18,9 C 80 % 0 lf 1011,2 hPa 0,0 l/m 0 min 0 min 266 W/m 20,9 km/h (4 Bft) 93,62 %
04.08.2016 12:44 18,3 C 20,0 C 18,3 C 80 % 0 lf 1011,1 hPa 0,0 l/m 0 min 0 min 271 W/m 18,8 km/h (3 Bft) 93,62 %
04.08.2016 12:46 18,3 C 20,0 C 18,9 C 80 % 0 lf 1011,1 hPa 0,0 l/m 0 min 0 min 269 W/m 8,4 km/h (2 Bft) 91,49 %
04.08.2016 12:48 18,4 C 20,0 C 18,9 C 81 % 0 lf 1011,0 hPa 0,0 l/m 0 min 0 min 269 W/m 20,9 km/h (4 Bft) 93,62 %
04.08.2016 12:50 18,4 C 20,0 C 18,9 C 81 % 0 lf 1011,1 hPa 0,0 l/m 0 min 0 min 273 W/m 18,8 km/h (3 Bft) 91,30 %
04.08.2016 12:52 18,4 C 20,0 C 18,9 C 81 % 0 lf 1011,0 hPa 0,0 l/m 0 min 0 min 269 W/m 14,6 km/h (3 Bft) 91,49 %
04.08.2016 12:54 18,4 C 20,0 C 18,9 C 81 % 0 lf 1011,1 hPa 0,0 l/m 0 min 0 min 271 W/m 23,0 km/h (4 Bft) 91,49 %
04.08.2016 12:56 18,4 C 20,0 C 18,9 C 81 % 0 lf 1011,2 hPa 0,0 l/m 0 min 0 min 255 W/m 18,8 km/h (3 Bft) 91,49 %
04.08.2016 12:58 18,4 C 19,4 C 18,3 C 80 % 0 lf 1011,1 hPa 0,0 l/m 0 min 0 min 226 W/m 18,8 km/h (3 Bft) 93,62 %
04.08.2016 13:00 18,4 C 19,4 C 18,9 C 80 % 0 lf 1011,2 hPa 0,0 l/m 0 min 0 min 234 W/m 16,7 km/h (3 Bft) 95,65 %
04.08.2016 13:02 18,4 C 19,4 C 18,9 C 81 % 0 lf 1011,2 hPa 0,0 l/m 0 min 0 min 246 W/m 16,7 km/h (3 Bft) 93,75 %
04.08.2016 13:04 18,4 C 19,4 C 18,9 C 81 % 0 lf 1011,1 hPa 0,0 l/m 0 min 0 min 217 W/m 16,7 km/h (3 Bft) 95,74 %
04.08.2016 13:06 18,4 C 20,0 C 18,9 C 81 % 0 lf 1011,2 hPa 0,0 l/m 0 min 0 min 240 W/m 14,6 km/h (3 Bft) 97,87 %
04.08.2016 13:08 18,4 C 20,0 C 19,4 C 82 % 0 lf 1011,2 hPa 0,0 l/m 0 min 0 min 241 W/m 12,6 km/h (3 Bft) 97,87 %
04.08.2016 13:10 18,4 C 20,0 C 18,9 C 82 % 0 lf 1011,2 hPa 0,0 l/m 0 min 0 min 210 W/m 16,7 km/h (3 Bft) 97,87 %
04.08.2016 13:12 18,5 C 19,4 C 18,9 C 82 % 0 lf 1011,1 hPa 0,0 l/m 0 min 0 min 179 W/m 16,7 km/h (3 Bft) 91,30 %
04.08.2016 13:14 18,5 C 19,4 C 18,3 C 82 % 0 lf 1011,1 hPa 0,0 l/m 0 min 0 min 143 W/m 14,6 km/h (3 Bft) 95,74 %
04.08.2016 13:16 18,5 C 18,9 C 18,3 C 82 % 0 lf 1011,1 hPa 0,0 l/m 0 min 0 min 143 W/m 20,9 km/h (4 Bft) 97,87 %
04.08.2016 13:18 18,4 C 18,9 C 18,3 C 82 % 0 lf 1011,1 hPa 0,0 l/m 0 min 0 min 206 W/m 18,8 km/h (3 Bft) 95,74 %
04.08.2016 13:20 18,4 C 19,4 C 18,9 C 82 % 0 lf 1011,1 hPa 0,0 l/m 0 min 0 min 266 W/m 12,6 km/h (3 Bft) 97,87 %
04.08.2016 13:22 18,4 C 20,0 C 18,9 C 83 % 0 lf 1011,1 hPa 0,0 l/m 0 min 0 min 283 W/m 14,6 km/h (3 Bft) 95,74 %
04.08.2016 13:24 18,4 C 20,0 C 18,9 C 82 % 0 lf 1011,1 hPa 0,0 l/m 0 min 0 min 265 W/m 16,7 km/h (3 Bft) 93,48 %
04.08.2016 13:26 18,4 C 20,0 C 18,9 C 82 % 0 lf 1011,1 hPa 0,0 l/m 0 min 0 min 220 W/m 20,9 km/h (4 Bft) 100,00 %
04.08.2016 13:28 18,4 C 19,4 C 18,9 C 82 % 0 lf 1011,1 hPa 0,0 l/m 0 min 0 min 174 W/m 18,8 km/h (3 Bft) 100,00 %
04.08.2016 13:30 18,4 C 19,4 C 18,3 C 82 % 0 lf 1011,0 hPa 0,0 l/m 0 min 0 min 159 W/m 27,2 km/h (4 Bft) 93,62 %
04.08.2016 13:32 18,4 C 19,4 C 18,3 C 82 % 0 lf 1011,1 hPa 0,0 l/m 0 min 0 min 186 W/m 18,8 km/h (3 Bft) 93,75 %
04.08.2016 13:34 18,4 C 19,4 C 18,3 C 81 % 0 lf 1011,1 hPa 0,0 l/m 0 min 0 min 201 W/m 18,8 km/h (3 Bft) 95,83 %
04.08.2016 13:36 18,4 C 19,4 C 18,3 C 81 % 0 lf 1011,1 hPa 0,0 l/m 0 min 0 min 186 W/m 18,8 km/h (3 Bft) 100,00 %
04.08.2016 13:38 18,4 C 19,4 C 18,3 C 81 % 0 lf 1011,0 hPa 0,0 l/m 0 min 0 min 203 W/m 16,7 km/h (3 Bft) 93,75 %
04.08.2016 13:40 18,4 C 19,4 C 18,9 C 82 % 0 lf 1011,0 hPa 0,0 l/m 0 min 0 min 236 W/m 14,6 km/h (3 Bft) 97,87 %
04.08.2016 13:42 18,4 C 19,4 C 18,9 C 82 % 0 lf 1011,0 hPa 0,0 l/m 0 min 0 min 230 W/m 16,7 km/h (3 Bft) 96,30 %
04.08.2016 13:43 18,4 C 19,4 C 18,9 C 82 % 0 lf 1011,0 hPa 0,0 l/m 0 min 0 min 204 W/m 20,9 km/h (4 Bft) 95,65 %
04.08.2016 13:44 18,4 C 19,4 C 18,3 C 81 % 0 lf 1011,0 hPa 0,0 l/m 0 min 0 min 197 W/m 16,7 km/h (3 Bft) 100,00 %
04.08.2016 13:46 18,3 C 19,4 C 18,3 C 81 % 0 lf 1011,0 hPa 0,0 l/m 0 min 0 min 192 W/m 14,6 km/h (3 Bft) 95,65 %
04.08.2016 13:48 18,3 C 19,4 C 18,3 C 81 % 0 lf 1011,0 hPa 0,0 l/m 0 min 0 min 208 W/m 16,7 km/h (3 Bft) 94,64 %
04.08.2016 13:50 18,3 C 19,4 C 18,3 C 81 % 0 lf 1011,0 hPa 0,0 l/m 0 min 0 min 232 W/m 25,1 km/h (4 Bft) 94,74 %
04.08.2016 13:52 18,3 C 19,4 C 18,3 C 81 % 0 lf 1011,1 hPa 0,0 l/m 0 min 0 min 248 W/m 20,9 km/h (4 Bft) 93,62 %
04.08.2016 13:54 18,3 C 19,4 C 18,3 C 81 % 0 lf 1011,1 hPa 0,0 l/m 0 min 0 min 259 W/m 23,0 km/h (4 Bft) 98,08 %
04.08.2016 13:56 18,3 C 19,4 C 18,9 C 81 % 0 lf 1011,1 hPa 0,0 l/m 0 min 0 min 270 W/m 23,0 km/h (4 Bft) 96,00 %
04.08.2016 13:58 18,3 C 19,4 C 18,9 C 81 % 0 lf 1011,1 hPa 0,0 l/m 0 min 0 min 269 W/m 20,9 km/h (4 Bft) 97,87 %
04.08.2016 14:00 18,3 C 20,0 C 18,9 C 81 % 0 lf 1011,1 hPa 0,0 l/m 0 min 0 min 240 W/m 14,6 km/h (3 Bft) 94,74 %
04.08.2016 14:02 18,3 C 19,4 C 18,9 C 81 % 0 lf 1011,1 hPa 0,0 l/m 0 min 0 min 223 W/m 20,9 km/h (4 Bft) 90,00 %
04.08.2016 14:04 18,3 C 19,4 C 18,9 C 81 % 0 lf 1011,1 hPa 0,0 l/m 0 min 0 min 195 W/m 14,6 km/h (3 Bft) 95,92 %
04.08.2016 14:06 18,4 C 19,4 C 18,3 C 81 % 0 lf 1011,1 hPa 0,0 l/m 0 min 0 min 172 W/m 16,7 km/h (3 Bft) 94,44 %
04.08.2016 14:08 18,3 C 19,4 C 18,3 C 81 % 0 lf 1011,2 hPa 0,0 l/m 0 min 0 min 144 W/m 12,6 km/h (3 Bft) 98,08 %
04.08.2016 14:10 18,3 C 19,4 C 18,3 C 82 % 0 lf 1011,1 hPa 0,0 l/m 0 min 0 min 170 W/m 18,8 km/h (3 Bft) 96,00 %
04.08.2016 14:12 18,4 C 19,4 C 18,3 C 81 % 0 lf 1011,1 hPa 0,0 l/m 0 min 0 min 197 W/m 14,6 km/h (3 Bft) 96,00 %
04.08.2016 14:14 18,4 C 19,4 C 18,3 C 81 % 0 lf 1011,1 hPa 0,0 l/m 0 min 0 min 209 W/m 14,6 km/h (3 Bft) 97,14 %
04.08.2016 14:16 18,4 C 20,0 C 18,9 C 82 % 0 lf 1011,1 hPa 0,0 l/m 0 min 0 min 244 W/m 12,6 km/h (3 Bft) 96,43 %
04.08.2016 14:18 18,4 C 20,0 C 18,9 C 81 % 0 lf 1011,1 hPa 0,0 l/m 0 min 0 min 271 W/m 25,1 km/h (4 Bft) 93,88 %
04.08.2016 14:20 18,4 C 20,0 C 18,9 C 81 % 0 lf 1011,1 hPa 0,0 l/m 0 min 0 min 278 W/m 20,9 km/h (4 Bft) 95,12 %
04.08.2016 14:22 18,4 C 19,4 C 18,9 C 81 % 0 lf 1011,2 hPa 0,0 l/m 0 min 0 min 258 W/m 12,6 km/h (3 Bft) 94,00 %
04.08.2016 14:24 18,4 C 20,0 C 18,9 C 81 % 0 lf 1011,2 hPa 0,0 l/m 0 min 0 min 225 W/m 16,7 km/h (3 Bft) 96,00 %
04.08.2016 14:26 18,4 C 19,4 C 18,3 C 81 % 0 lf 1011,2 hPa 0,0 l/m 0 min 0 min 237 W/m 25,1 km/h (4 Bft) 100,00 %
04.08.2016 14:28 18,4 C 19,4 C 18,9 C 81 % 0 lf 1011,2 hPa 0,0 l/m 0 min 0 min 267 W/m 20,9 km/h (4 Bft) 94,64 %
04.08.2016 14:30 18,4 C 20,0 C 18,9 C 81 % 0 lf 1011,2 hPa 0,0 l/m 0 min 0 min 292 W/m 23,0 km/h (4 Bft) 100,00 %
04.08.2016 14:32 18,4 C 20,0 C 19,4 C 81 % 0 lf 1011,2 hPa 0,0 l/m 0 min 0 min 315 W/m 20,9 km/h (4 Bft) 96,00 %
04.08.2016 14:34 18,4 C 20,6 C 19,4 C 80 % 0 lf 1011,1 hPa 0,0 l/m 0 min 0 min 337 W/m 18,8 km/h (3 Bft) 100,00 %
04.08.2016 14:36 18,5 C 21,1 C 20,0 C 81 % 0 lf 1011,1 hPa 0,0 l/m 0 min 0 min 352 W/m 23,0 km/h (4 Bft) 96,43 %
04.08.2016 14:38 18,6 C 21,1 C 20,0 C 80 % 0 lf 1011,1 hPa 0,0 l/m 0 min 0 min 371 W/m 20,9 km/h (4 Bft) 90,00 %
04.08.2016 14:40 18,6 C 21,1 C 20,0 C 80 % 0 lf 1011,1 hPa 0,0 l/m 2 min 0 min 395 W/m 25,1 km/h (4 Bft) 95,12 %
04.08.2016 14:42 18,6 C 21,1 C 20,0 C 79 % 0 lf 1011,1 hPa 0,0 l/m 2 min 0 min 420 W/m 20,9 km/h (4 Bft) 95,65 %
04.08.2016 14:44 18,7 C 21,7 C 20,6 C 79 % 0 lf 1011,1 hPa 0,0 l/m 2 min 0 min 462 W/m 14,6 km/h (3 Bft) 96,00 %
04.08.2016 14:46 18,7 C 21,7 C 21,1 C 80 % 0 lf 1011,0 hPa 0,0 l/m 2 min 0 min 478 W/m 20,9 km/h (4 Bft) 96,00 %
04.08.2016 14:48 18,8 C 22,2 C 21,1 C 80 % 0 lf 1011,1 hPa 0,0 l/m 2 min 0 min 466 W/m 16,7 km/h (3 Bft) 97,14 %
04.08.2016 14:50 18,9 C 22,2 C 21,1 C 80 % 0 lf 1011,0 hPa 0,0 l/m 2 min 0 min 405 W/m 14,6 km/h (3 Bft) 96,43 %
04.08.2016 14:52 18,9 C 22,8 C 21,1 C 80 % 0 lf 1011,0 hPa 0,0 l/m 0 min 0 min 344 W/m 16,7 km/h (3 Bft) 97,96 %
04.08.2016 14:54 19,1 C 22,8 C 21,1 C 80 % 0 lf 1011,1 hPa 0,0 l/m 0 min 0 min 343 W/m 18,8 km/h (3 Bft) 88,89 %
04.08.2016 14:56 19,1 C 22,2 C 21,1 C 80 % 0 lf 1011,1 hPa 0,0 l/m 0 min 0 min 322 W/m 16,7 km/h (3 Bft) 92,73 %
04.08.2016 14:58 19,2 C 22,2 C 21,1 C 80 % 0 lf 1011,1 hPa 0,0 l/m 2 min 0 min 405 W/m 25,1 km/h (4 Bft) 97,87 %
04.08.2016 15:00 19,2 C 22,2 C 21,1 C 78 % 0 lf 1011,1 hPa 0,0 l/m 2 min 0 min 433 W/m 25,1 km/h (4 Bft) 91,49 %
04.08.2016 15:02 19,2 C 22,8 C 21,7 C 78 % 0 lf 1011,1 hPa 0,0 l/m 2 min 0 min 581 W/m 14,6 km/h (3 Bft) 94,00 %
04.08.2016 15:04 19,3 C 22,8 C 22,2 C 79 % 0 lf 1011,1 hPa 0,0 l/m 2 min 0 min 508 W/m 16,7 km/h (3 Bft) 95,35 %
04.08.2016 15:06 19,4 C 22,8 C 21,7 C 79 % 0 lf 1011,1 hPa 0,0 l/m 2 min 0 min 446 W/m 20,9 km/h (4 Bft) 93,18 %
04.08.2016 15:08 19,4 C 22,2 C 21,7 C 79 % 0 lf 1011,1 hPa 0,0 l/m 2 min 0 min 447 W/m 20,9 km/h (4 Bft) 96,00 %
04.08.2016 15:10 19,5 C 22,2 C 21,7 C 78 % 0 lf 1011,1 hPa 0,0 l/m 2 min 0 min 483 W/m 25,1 km/h (4 Bft) 91,49 %
04.08.2016 15:12 19,5 C 22,8 C 21,7 C 78 % 0 lf 1011,1 hPa 0,0 l/m 2 min 0 min 477 W/m 18,8 km/h (3 Bft) 93,18 %
04.08.2016 15:14 19,6 C 22,8 C 21,7 C 78 % 0 lf 1011,1 hPa 0,0 l/m 2 min 0 min 450 W/m 23,0 km/h (4 Bft) 97,87 %
04.08.2016 15:16 19,6 C 22,2 C 21,1 C 77 % 0 lf 1011,1 hPa 0,0 l/m 2 min 0 min 456 W/m 29,3 km/h (5 Bft) 97,96 %
04.08.2016 15:18 19,6 C 22,2 C 21,1 C 77 % 0 lf 1011,1 hPa 0,0 l/m 2 min 0 min 424 W/m 18,8 km/h (3 Bft) 96,23 %
04.08.2016 15:20 19,7 C 22,2 C 21,1 C 77 % 0 lf 1011,2 hPa 0,0 l/m 2 min 0 min 377 W/m 23,0 km/h (4 Bft) 97,87 %
04.08.2016 15:22 19,7 C 22,2 C 21,1 C 77 % 0 lf 1011,2 hPa 0,0 l/m 0 min 0 min 363 W/m 18,8 km/h (3 Bft) 93,62 %
04.08.2016 15:24 19,7 C 21,7 C 21,1 C 77 % 0 lf 1011,2 hPa 0,0 l/m 0 min 0 min 343 W/m 18,8 km/h (3 Bft) 97,87 %
04.08.2016 15:26 19,7 C 21,7 C 21,1 C 77 % 0 lf 1011,2 hPa 0,0 l/m 0 min 0 min 328 W/m 12,6 km/h (3 Bft) 97,37 %
04.08.2016 15:28 19,7 C 21,7 C 21,1 C 78 % 0 lf 1011,1 hPa 0,0 l/m 0 min 0 min 329 W/m 14,6 km/h (3 Bft) 93,88 %
04.08.2016 15:30 19,7 C 21,7 C 21,1 C 78 % 0 lf 1011,2 hPa 0,0 l/m 0 min 0 min 332 W/m 14,6 km/h (3 Bft) 97,87 %
04.08.2016 15:32 19,8 C 22,2 C 21,1 C 78 % 0 lf 1011,2 hPa 0,0 l/m 0 min 0 min 323 W/m 14,6 km/h (3 Bft) 94,34 %
04.08.2016 15:34 19,8 C 21,7 C 21,1 C 78 % 0 lf 1011,1 hPa 0,0 l/m 0 min 0 min 334 W/m 16,7 km/h (3 Bft) 97,87 %
04.08.2016 15:36 19,8 C 21,1 C 20,6 C 77 % 0 lf 1011,1 hPa 0,0 l/m 0 min 0 min 346 W/m 16,7 km/h (3 Bft) 97,37 %
04.08.2016 15:38 19,8 C 22,2 C 21,1 C 77 % 0 lf 1011,1 hPa 0,0 l/m 2 min 0 min 365 W/m 14,6 km/h (3 Bft) 98,00 %
04.08.2016 15:40 19,8 C 22,2 C 21,1 C 77 % 0 lf 1011,1 hPa 0,0 l/m 2 min 0 min 370 W/m 20,9 km/h (4 Bft) 93,48 %
04.08.2016 15:42 19,8 C 22,2 C 21,1 C 77 % 0 lf 1011,1 hPa 0,0 l/m 2 min 0 min 377 W/m 20,9 km/h (4 Bft) 95,45 %
04.08.2016 15:44 19,7 C 21,7 C 20,6 C 76 % 0 lf 1011,1 hPa 0,0 l/m 2 min 0 min 389 W/m 25,1 km/h (4 Bft) 96,00 %
04.08.2016 15:46 19,7 C 21,1 C 20,6 C 76 % 0 lf 1011,1 hPa 0,0 l/m 2 min 0 min 397 W/m 18,8 km/h (3 Bft) 98,11 %
04.08.2016 15:48 19,7 C 22,2 C 21,7 C 77 % 0 lf 1011,0 hPa 0,0 l/m 2 min 0 min 407 W/m 12,6 km/h (3 Bft) 97,37 %
04.08.2016 15:50 19,7 C 22,8 C 21,7 C 78 % 0 lf 1011,0 hPa 0,0 l/m 2 min 0 min 401 W/m 8,4 km/h (2 Bft) 96,00 %
04.08.2016 15:52 19,8 C 22,8 C 21,7 C 78 % 0 lf 1011,0 hPa 0,0 l/m 2 min 0 min 392 W/m 18,8 km/h (3 Bft) 95,65 %
04.08.2016 15:54 19,8 C 22,2 C 21,7 C 78 % 0 lf 1011,0 hPa 0,0 l/m 2 min 0 min 384 W/m 16,7 km/h (3 Bft) 95,45 %
04.08.2016 15:56 19,8 C 22,2 C 21,1 C 77 % 0 lf 1010,9 hPa 0,0 l/m 2 min 0 min 391 W/m 25,1 km/h (4 Bft) 95,74 %
04.08.2016 15:58 19,8 C 22,8 C 21,1 C 77 % 0 lf 1010,9 hPa 0,0 l/m 2 min 0 min 405 W/m 18,8 km/h (3 Bft) 95,74 %
04.08.2016 16:00 19,9 C 22,8 C 21,7 C 77 % 0 lf 1010,9 hPa 0,0 l/m 2 min 0 min 416 W/m 16,7 km/h (3 Bft) 98,00 %
04.08.2016 16:02 19,9 C 22,8 C 21,7 C 77 % 0 lf 1010,9 hPa 0,0 l/m 2 min 0 min 479 W/m 27,2 km/h (4 Bft) 94,23 %
04.08.2016 16:04 19,9 C 22,8 C 22,2 C 76 % 0 lf 1010,9 hPa 0,0 l/m 2 min 0 min 460 W/m 18,8 km/h (3 Bft) 97,37 %
04.08.2016 16:06 19,9 C 22,8 C 21,7 C 76 % 0 lf 1010,8 hPa 0,0 l/m 2 min 0 min 408 W/m 18,8 km/h (3 Bft) 98,00 %
04.08.2016 16:08 19,9 C 22,2 C 21,7 C 76 % 0 lf 1010,9 hPa 0,0 l/m 2 min 0 min 387 W/m 14,6 km/h (3 Bft) 91,67 %
04.08.2016 16:10 19,9 C 21,7 C 21,1 C 76 % 0 lf 1010,9 hPa 0,0 l/m 2 min 0 min 357 W/m 20,9 km/h (4 Bft) 97,87 %
04.08.2016 16:12 19,9 C 22,2 C 21,1 C 76 % 0 lf 1010,8 hPa 0,0 l/m 2 min 0 min 378 W/m 20,9 km/h (4 Bft) 95,35 %
04.08.2016 16:14 19,9 C 22,2 C 21,7 C 76 % 0 lf 1010,8 hPa 0,0 l/m 2 min 0 min 421 W/m 16,7 km/h (3 Bft) 97,96 %
04.08.2016 16:16 19,9 C 23,3 C 21,7 C 77 % 0 lf 1010,9 hPa 0,0 l/m 2 min 0 min 410 W/m 18,8 km/h (3 Bft) 97,92 %
04.08.2016 16:18 19,9 C 22,8 C 21,1 C 76 % 0 lf 1010,9 hPa 0,0 l/m 2 min 0 min 367 W/m 23,0 km/h (4 Bft) 95,74 %
04.08.2016 16:20 19,9 C 22,8 C 21,1 C 76 % 0 lf 1010,9 hPa 0,0 l/m 2 min 0 min 356 W/m 16,7 km/h (3 Bft) 95,35 %
04.08.2016 16:22 19,9 C 22,8 C 21,1 C 76 % 0 lf 1010,8 hPa 0,0 l/m 2 min 0 min 395 W/m 12,6 km/h (3 Bft) 96,00 %
04.08.2016 16:24 19,9 C 22,8 C 21,7 C 77 % 0 lf 1010,8 hPa 0,0 l/m 2 min 0 min 443 W/m 18,8 km/h (3 Bft) 95,74 %
04.08.2016 16:26 19,9 C 22,8 C 21,7 C 77 % 0 lf 1010,9 hPa 0,0 l/m 2 min 0 min 407 W/m 18,8 km/h (3 Bft) 95,65 %
04.08.2016 16:28 20,0 C 22,8 C 21,7 C 77 % 0 lf 1011,2 hPa 0,0 l/m 2 min 0 min 379 W/m 25,1 km/h (4 Bft) 97,92 %
04.08.2016 16:30 20,0 C 22,8 C 21,7 C 76 % 0 lf 1011,1 hPa 0,0 l/m 2 min 0 min 383 W/m 18,8 km/h (3 Bft) 95,74 %
04.08.2016 16:32 20,0 C 22,8 C 21,7 C 76 % 0 lf 1011,0 hPa 0,0 l/m 2 min 0 min 415 W/m 20,9 km/h (4 Bft) 93,02 %
04.08.2016 16:34 20,1 C 22,8 C 21,7 C 76 % 0 lf 1011,0 hPa 0,0 l/m 2 min 0 min 405 W/m 18,8 km/h (3 Bft) 90,00 %
04.08.2016 16:36 20,1 C 23,3 C 21,7 C 77 % 0 lf 1011,1 hPa 0,0 l/m 2 min 0 min 367 W/m 16,7 km/h (3 Bft) 95,83 %
04.08.2016 16:38 20,1 C 23,3 C 21,1 C 77 % 0 lf 1011,1 hPa 0,0 l/m 2 min 0 min 373 W/m 18,8 km/h (3 Bft) 93,48 %
04.08.2016 16:40 20,1 C 23,3 C 21,1 C 76 % 0 lf 1011,0 hPa 0,0 l/m 2 min 0 min 392 W/m 16,7 km/h (3 Bft) 97,87 %
04.08.2016 16:42 20,1 C 23,3 C 21,1 C 77 % 0 lf 1011,1 hPa 0,0 l/m 2 min 0 min 383 W/m 20,9 km/h (4 Bft) 97,67 %
04.08.2016 16:44 20,2 C 23,3 C 21,1 C 77 % 0 lf 1011,1 hPa 0,0 l/m 2 min 0 min 426 W/m 14,6 km/h (3 Bft) 94,00 %
04.08.2016 16:46 20,2 C 23,3 C 21,1 C 77 % 0 lf 1011,1 hPa 0,0 l/m 2 min 0 min 456 W/m 18,8 km/h (3 Bft) 93,75 %
04.08.2016 16:48 20,2 C 23,3 C 21,1 C 77 % 0 lf 1011,1 hPa 0,0 l/m 2 min 0 min 430 W/m 16,7 km/h (3 Bft) 95,74 %
04.08.2016 16:50 20,2 C 22,8 C 21,1 C 76 % 0 lf 1011,1 hPa 0,0 l/m 2 min 0 min 380 W/m 18,8 km/h (3 Bft) 97,62 %
04.08.2016 16:52 20,2 C 22,8 C 21,1 C 76 % 0 lf 1011,0 hPa 0,0 l/m 2 min 0 min 360 W/m 12,6 km/h (3 Bft) 94,00 %
04.08.2016 16:54 20,2 C 22,2 C 20,6 C 76 % 0 lf 1011,0 hPa 0,0 l/m 2 min 0 min 306 W/m 18,8 km/h (3 Bft) 95,83 %
04.08.2016 16:56 20,2 C 22,2 C 20,6 C 77 % 0 lf 1011,0 hPa 0,0 l/m 2 min 0 min 309 W/m 16,7 km/h (3 Bft) 95,74 %
04.08.2016 16:58 20,2 C 22,2 C 20,6 C 76 % 0 lf 1011,1 hPa 0,0 l/m 2 min 0 min 317 W/m 14,6 km/h (3 Bft) 95,35 %
04.08.2016 17:00 20,2 C 22,2 C 20,6 C 76 % 0 lf 1011,0 hPa 0,0 l/m 2 min 0 min 322 W/m 20,9 km/h (4 Bft) 92,00 %
04.08.2016 17:02 20,2 C 21,7 C 20,6 C 77 % 0 lf 1011,1 hPa 0,0 l/m 2 min 0 min 307 W/m 18,8 km/h (3 Bft) 93,62 %
04.08.2016 17:04 20,2 C 21,7 C 20,6 C 76 % 0 lf 1011,1 hPa 0,0 l/m 2 min 0 min 297 W/m 18,8 km/h (3 Bft) 93,62 %
04.08.2016 17:06 20,2 C 21,7 C 20,6 C 76 % 0 lf 1011,1 hPa 0,0 l/m 2 min 0 min 298 W/m 27,2 km/h (4 Bft) 95,35 %
04.08.2016 17:08 20,2 C 21,7 C 20,6 C 76 % 0 lf 1011,1 hPa 0,0 l/m 0 min 0 min 287 W/m 20,9 km/h (4 Bft) 92,00 %
04.08.2016 17:10 20,1 C 21,1 C 20,6 C 75 % 0 lf 1011,2 hPa 0,0 l/m 0 min 0 min 275 W/m 14,6 km/h (3 Bft) 95,74 %
04.08.2016 17:12 20,1 C 21,1 C 20,6 C 76 % 0 lf 1011,1 hPa 0,0 l/m 0 min 0 min 268 W/m 23,0 km/h (4 Bft) 95,74 %
04.08.2016 17:14 20,1 C 21,1 C 20,6 C 76 % 0 lf 1011,1 hPa 0,0 l/m 0 min 0 min 273 W/m 18,8 km/h (3 Bft) 93,62 %
04.08.2016 17:16 20,1 C 21,7 C 20,6 C 77 % 0 lf 1011,1 hPa 0,0 l/m 0 min 0 min 278 W/m 18,8 km/h (3 Bft) 95,35 %
04.08.2016 17:18 20,1 C 21,7 C 20,6 C 76 % 0 lf 1011,1 hPa 0,0 l/m 2 min 0 min 299 W/m 18,8 km/h (3 Bft) 96,00 %
04.08.2016 17:20 20,0 C 21,7 C 20,6 C 76 % 0 lf 1011,1 hPa 0,0 l/m 2 min 0 min 298 W/m 18,8 km/h (3 Bft) 93,62 %
04.08.2016 17:22 20,0 C 21,7 C 20,6 C 76 % 0 lf 1011,1 hPa 0,0 l/m 2 min 0 min 289 W/m 16,7 km/h (3 Bft) 97,92 %
04.08.2016 17:24 20,0 C 21,7 C 20,6 C 76 % 0 lf 1011,2 hPa 0,0 l/m 0 min 0 min 264 W/m 12,6 km/h (3 Bft) 100,00 %
04.08.2016 17:26 20,0 C 21,7 C 20,6 C 77 % 0 lf 1011,2 hPa 0,0 l/m 0 min 0 min 244 W/m 18,8 km/h (3 Bft) 100,00 %
04.08.2016 17:28 20,0 C 21,7 C 20,0 C 77 % 0 lf 1011,1 hPa 0,0 l/m 0 min 0 min 231 W/m 12,6 km/h (3 Bft) 97,87 %
04.08.2016 17:30 20,0 C 21,7 C 20,6 C 77 % 0 lf 1011,0 hPa 0,0 l/m 0 min 0 min 222 W/m 8,4 km/h (2 Bft) 95,35 %
04.08.2016 17:32 20,0 C 21,1 C 20,0 C 77 % 0 lf 1010,9 hPa 0,0 l/m 0 min 0 min 233 W/m 14,6 km/h (3 Bft) 98,00 %
04.08.2016 17:34 20,0 C 21,7 C 20,0 C 77 % 0 lf 1010,9 hPa 0,0 l/m 0 min 0 min 251 W/m 10,5 km/h (2 Bft) 95,83 %
04.08.2016 17:36 20,0 C 21,7 C 20,0 C 77 % 0 lf 1010,9 hPa 0,0 l/m 2 min 0 min 260 W/m 16,7 km/h (3 Bft) 91,30 %
04.08.2016 17:38 20,0 C 21,7 C 20,6 C 77 % 0 lf 1010,9 hPa 0,0 l/m 2 min 0 min 258 W/m 12,6 km/h (3 Bft) 93,02 %
04.08.2016 17:40 20,0 C 21,1 C 20,6 C 77 % 0 lf 1010,9 hPa 0,0 l/m 2 min 0 min 283 W/m 18,8 km/h (3 Bft) 98,00 %
04.08.2016 17:42 20,0 C 21,7 C 20,6 C 77 % 0 lf 1010,9 hPa 0,0 l/m 2 min 0 min 266 W/m 12,6 km/h (3 Bft) 95,83 %
04.08.2016 17:44 20,1 C 21,7 C 20,6 C 77 % 0 lf 1011,0 hPa 0,0 l/m 2 min 0 min 256 W/m 10,5 km/h (2 Bft) 95,74 %
04.08.2016 17:46 20,1 C 21,7 C 21,1 C 78 % 0 lf 1011,0 hPa 0,0 l/m 2 min 0 min 268 W/m 14,6 km/h (3 Bft) 93,02 %
04.08.2016 17:48 20,1 C 21,7 C 20,6 C 77 % 0 lf 1010,9 hPa 0,0 l/m 2 min 0 min 285 W/m 20,9 km/h (4 Bft) 95,92 %
04.08.2016 17:50 20,1 C 21,7 C 20,6 C 77 % 0 lf 1010,9 hPa 0,0 l/m 2 min 0 min 287 W/m 14,6 km/h (3 Bft) 97,92 %
04.08.2016 17:52 20,1 C 21,7 C 20,6 C 77 % 0 lf 1011,0 hPa 0,0 l/m 2 min 0 min 270 W/m 16,7 km/h (3 Bft) 91,49 %
04.08.2016 17:54 20,1 C 21,1 C 20,6 C 77 % 0 lf 1011,0 hPa 0,0 l/m 0 min 0 min 238 W/m 16,7 km/h (3 Bft) 97,87 %
04.08.2016 17:56 20,1 C 21,1 C 20,6 C 77 % 0 lf 1011,0 hPa 0,0 l/m 0 min 0 min 233 W/m 14,6 km/h (3 Bft) 95,35 %
04.08.2016 17:58 20,1 C 21,1 C 20,6 C 77 % 0 lf 1010,9 hPa 0,0 l/m 0 min 0 min 216 W/m 8,4 km/h (2 Bft) 96,00 %
04.08.2016 18:00 20,1 C 21,1 C 20,6 C 77 % 0 lf 1010,9 hPa 0,0 l/m 0 min 0 min 213 W/m 10,5 km/h (2 Bft) 95,65 %
04.08.2016 18:02 20,1 C 21,7 C 20,0 C 77 % 0 lf 1011,0 hPa 0,0 l/m 2 min 0 min 231 W/m 12,6 km/h (3 Bft) 97,92 %
04.08.2016 18:04 20,1 C 21,7 C 20,6 C 78 % 0 lf 1010,9 hPa 0,0 l/m 2 min 0 min 324 W/m 18,8 km/h (3 Bft) 95,24 %
04.08.2016 18:06 20,2 C 21,7 C 20,6 C 78 % 0 lf 1011,0 hPa 0,0 l/m 2 min 0 min 362 W/m 14,6 km/h (3 Bft) 98,00 %
04.08.2016 18:08 20,2 C 22,2 C 20,6 C 78 % 0 lf 1010,9 hPa 0,0 l/m 2 min 0 min 345 W/m 14,6 km/h (3 Bft) 97,96 %
04.08.2016 18:10 20,2 C 21,7 C 20,6 C 78 % 0 lf 1010,8 hPa 0,0 l/m 2 min 0 min 329 W/m 16,7 km/h (3 Bft) 95,74 %
04.08.2016 18:12 20,2 C 21,7 C 20,6 C 77 % 0 lf 1010,8 hPa 0,0 l/m 2 min 0 min 333 W/m 18,8 km/h (3 Bft) 97,83 %
04.08.2016 18:14 20,2 C 21,7 C 20,0 C 77 % 0 lf 1010,7 hPa 0,0 l/m 2 min 0 min 321 W/m 16,7 km/h (3 Bft) 97,87 %
04.08.2016 18:16 20,2 C 21,1 C 20,0 C 76 % 0 lf 1010,8 hPa 0,0 l/m 2 min 0 min 296 W/m 25,1 km/h (4 Bft) 95,74 %
04.08.2016 18:18 20,1 C 21,7 C 20,0 C 76 % 0 lf 1010,7 hPa 0,0 l/m 2 min 0 min 274 W/m 23,0 km/h (4 Bft) 95,74 %
04.08.2016 18:20 20,1 C 21,1 C 20,0 C 76 % 0 lf 1010,8 hPa 0,0 l/m 2 min 0 min 268 W/m 14,6 km/h (3 Bft) 95,74 %
04.08.2016 18:22 20,1 C 21,1 C 20,0 C 76 % 0 lf 1010,8 hPa 0,0 l/m 2 min 0 min 284 W/m 12,6 km/h (3 Bft) 100,00 %
04.08.2016 18:24 20,1 C 21,1 C 20,0 C 76 % 0 lf 1010,7 hPa 0,0 l/m 2 min 0 min 301 W/m 20,9 km/h (4 Bft) 100,00 %
04.08.2016 18:26 20,1 C 21,1 C 20,0 C 77 % 0 lf 1010,7 hPa 0,0 l/m 2 min 0 min 289 W/m 14,6 km/h (3 Bft) 95,74 %
04.08.2016 18:28 20,1 C 21,1 C 20,0 C 77 % 0 lf 1010,8 hPa 0,0 l/m 2 min 0 min 260 W/m 27,2 km/h (4 Bft) 100,00 %
04.08.2016 18:30 20,1 C 21,1 C 20,0 C 77 % 0 lf 1010,8 hPa 0,0 l/m 2 min 0 min 266 W/m 20,9 km/h (4 Bft) 100,00 %
04.08.2016 18:32 20,1 C 21,1 C 19,4 C 77 % 0 lf 1010,7 hPa 0,0 l/m 2 min 0 min 315 W/m 29,3 km/h (5 Bft) 95,74 %
04.08.2016 18:34 20,0 C 21,1 C 20,0 C 76 % 0 lf 1010,8 hPa 0,0 l/m 2 min 0 min 347 W/m 14,6 km/h (3 Bft) 95,56 %
04.08.2016 18:36 20,1 C 21,7 C 20,0 C 76 % 0 lf 1010,7 hPa 0,0 l/m 2 min 0 min 297 W/m 12,6 km/h (3 Bft) 97,83 %
04.08.2016 18:38 20,1 C 21,7 C 20,0 C 77 % 0 lf 1010,7 hPa 0,0 l/m 2 min 0 min 298 W/m 12,6 km/h (3 Bft) 100,00 %
04.08.2016 18:40 20,1 C 21,1 C 20,0 C 77 % 0 lf 1010,6 hPa 0,0 l/m 2 min 0 min 273 W/m 16,7 km/h (3 Bft) 100,00 %
04.08.2016 18:42 20,1 C 21,1 C 20,0 C 77 % 0 lf 1010,6 hPa 0,0 l/m 2 min 0 min 261 W/m 23,0 km/h (4 Bft) 97,87 %
04.08.2016 18:44 20,1 C 21,1 C 19,4 C 77 % 0 lf 1010,6 hPa 0,0 l/m 2 min 0 min 250 W/m 23,0 km/h (4 Bft) 97,87 %
04.08.2016 18:46 20,1 C 21,1 C 19,4 C 77 % 0 lf 1010,6 hPa 0,0 l/m 2 min 0 min 219 W/m 14,6 km/h (3 Bft) 97,87 %
04.08.2016 18:48 20,0 C 21,1 C 19,4 C 77 % 0 lf 1010,6 hPa 0,0 l/m 2 min 0 min 198 W/m 12,6 km/h (3 Bft) 97,83 %
04.08.2016 18:50 20,0 C 21,1 C 19,4 C 77 % 0 lf 1010,6 hPa 0,0 l/m 2 min 0 min 182 W/m 18,8 km/h (3 Bft) 100,00 %
04.08.2016 18:52 20,0 C 20,6 C 19,4 C 77 % 0 lf 1010,6 hPa 0,0 l/m 2 min 0 min 175 W/m 18,8 km/h (3 Bft) 97,87 %
04.08.2016 18:54 20,0 C 20,6 C 19,4 C 77 % 0 lf 1010,6 hPa 0,0 l/m 2 min 0 min 172 W/m 16,7 km/h (3 Bft) 95,74 %
04.08.2016 18:56 19,9 C 20,6 C 18,9 C 76 % 0 lf 1010,6 hPa 0,0 l/m 2 min 0 min 169 W/m 20,9 km/h (4 Bft) 97,87 %
04.08.2016 18:58 19,9 C 20,6 C 18,9 C 76 % 0 lf 1010,6 hPa 0,0 l/m 2 min 0 min 164 W/m 25,1 km/h (4 Bft) 95,74 %
04.08.2016 19:00 19,9 C 20,6 C 18,9 C 76 % 0 lf 1010,6 hPa 0,0 l/m 0 min 0 min 160 W/m 20,9 km/h (4 Bft) 97,83 %
04.08.2016 19:02 19,9 C 20,6 C 18,9 C 76 % 0 lf 1010,6 hPa 0,0 l/m 0 min 0 min 156 W/m 16,7 km/h (3 Bft) 93,18 %
04.08.2016 19:04 19,9 C 20,6 C 18,9 C 76 % 0 lf 1010,7 hPa 0,0 l/m 2 min 0 min 156 W/m 12,6 km/h (3 Bft) 95,74 %
04.08.2016 19:06 19,8 C 20,6 C 18,9 C 77 % 0 lf 1010,7 hPa 0,0 l/m 2 min 0 min 154 W/m 12,6 km/h (3 Bft) 95,74 %
04.08.2016 19:08 19,8 C 20,6 C 18,9 C 77 % 0 lf 1010,7 hPa 0,0 l/m 2 min 0 min 151 W/m 14,6 km/h (3 Bft) 95,74 %
04.08.2016 19:10 19,8 C 20,6 C 18,9 C 77 % 0 lf 1010,7 hPa 0,0 l/m 0 min 0 min 146 W/m 10,5 km/h (2 Bft) 93,62 %
04.08.2016 19:12 19,8 C 20,6 C 18,9 C 77 % 0 lf 1010,7 hPa 0,0 l/m 0 min 0 min 142 W/m 14,6 km/h (3 Bft) 91,30 %
04.08.2016 19:14 19,8 C 20,6 C 18,9 C 77 % 0 lf 1010,7 hPa 0,0 l/m 0 min 0 min 140 W/m 10,5 km/h (2 Bft) 95,74 %
04.08.2016 19:16 19,8 C 20,0 C 18,9 C 78 % 0 lf 1010,7 hPa 0,0 l/m 0 min 0 min 138 W/m 8,4 km/h (2 Bft) 95,74 %
04.08.2016 19:18 19,8 C 20,6 C 18,9 C 78 % 0 lf 1010,7 hPa 0,0 l/m 0 min 0 min 135 W/m 12,6 km/h (3 Bft) 95,74 %
04.08.2016 19:20 19,8 C 20,0 C 18,9 C 78 % 0 lf 1010,8 hPa 0,0 l/m 0 min 0 min 133 W/m 12,6 km/h (3 Bft) 97,87 %
04.08.2016 19:22 19,7 C 20,6 C 18,9 C 78 % 0 lf 1010,7 hPa 0,0 l/m 0 min 0 min 128 W/m 10,5 km/h (2 Bft) 95,65 %
04.08.2016 19:24 19,7 C 20,0 C 18,9 C 78 % 0 lf 1010,8 hPa 0,0 l/m 0 min 0 min 123 W/m 10,5 km/h (2 Bft) 93,62 %
04.08.2016 19:26 19,7 C 20,0 C 18,9 C 78 % 0 lf 1010,7 hPa 0,0 l/m 0 min 0 min 116 W/m 12,6 km/h (3 Bft) 95,74 %
04.08.2016 19:28 19,7 C 20,0 C 18,3 C 78 % 0 lf 1010,7 hPa 0,0 l/m 0 min 0 min 109 W/m 10,5 km/h (2 Bft) 91,49 %
04.08.2016 19:30 19,7 C 20,0 C 18,3 C 78 % 0 lf 1010,7 hPa 0,0 l/m 0 min 0 min 102 W/m 12,6 km/h (3 Bft) 97,87 %
04.08.2016 19:32 19,7 C 20,0 C 18,3 C 78 % 0 lf 1010,7 hPa 0,0 l/m 0 min 0 min 98 W/m 10,5 km/h (2 Bft) 97,87 %
04.08.2016 19:34 19,7 C 20,0 C 18,3 C 78 % 0 lf 1010,7 hPa 0,0 l/m 0 min 0 min 98 W/m 10,5 km/h (2 Bft) 97,83 %
04.08.2016 19:36 19,6 C 20,0 C 18,3 C 78 % 0 lf 1010,8 hPa 0,0 l/m 0 min 0 min 100 W/m 10,5 km/h (2 Bft) 95,74 %
04.08.2016 19:38 19,6 C 20,0 C 18,3 C 78 % 0 lf 1010,8 hPa 0,0 l/m 0 min 0 min 100 W/m 10,5 km/h (2 Bft) 97,87 %
04.08.2016 19:40 19,6 C 19,4 C 18,3 C 78 % 0 lf 1010,8 hPa 0,0 l/m 0 min 0 min 100 W/m 12,6 km/h (3 Bft) 95,74 %
04.08.2016 19:42 19,6 C 19,4 C 18,3 C 78 % 0 lf 1010,9 hPa 0,0 l/m 0 min 0 min 98 W/m 10,5 km/h (2 Bft) 97,87 %
04.08.2016 19:44 19,6 C 19,4 C 18,3 C 78 % 0 lf 1010,9 hPa 0,0 l/m 0 min 0 min 97 W/m 8,4 km/h (2 Bft) 95,74 %
04.08.2016 19:46 19,6 C 19,4 C 18,3 C 78 % 0 lf 1011,0 hPa 0,0 l/m 0 min 0 min 96 W/m 12,6 km/h (3 Bft) 97,83 %
04.08.2016 19:48 19,5 C 19,4 C 18,3 C 78 % 0 lf 1011,0 hPa 0,0 l/m 0 min 0 min 96 W/m 10,5 km/h (2 Bft) 100,00 %
04.08.2016 19:50 19,5 C 19,4 C 18,3 C 78 % 0 lf 1011,0 hPa 0,0 l/m 2 min 0 min 98 W/m 12,6 km/h (3 Bft) 97,87 %
04.08.2016 19:52 19,5 C 19,4 C 18,3 C 79 % 0 lf 1011,1 hPa 0,0 l/m 2 min 0 min 102 W/m 6,3 km/h (2 Bft) 91,49 %
04.08.2016 19:54 19,5 C 19,4 C 18,3 C 79 % 0 lf 1011,1 hPa 0,0 l/m 2 min 0 min 106 W/m 10,5 km/h (2 Bft) 97,87 %
04.08.2016 19:56 19,4 C 19,4 C 18,3 C 79 % 0 lf 1011,1 hPa 0,0 l/m 2 min 0 min 108 W/m 8,4 km/h (2 Bft) 97,87 %
04.08.2016 19:58 19,4 C 19,4 C 18,3 C 79 % 0 lf 1011,1 hPa 0,0 l/m 2 min 0 min 102 W/m 10,5 km/h (2 Bft) 100,00 %
04.08.2016 20:00 19,4 C 19,4 C 18,3 C 79 % 0 lf 1011,1 hPa 0,0 l/m 2 min 0 min 98 W/m 12,6 km/h (3 Bft) 95,74 %
04.08.2016 20:02 19,4 C 19,4 C 17,8 C 79 % 0 lf 1011,1 hPa 0,0 l/m 2 min 0 min 93 W/m 12,6 km/h (3 Bft) 95,74 %
04.08.2016 20:04 19,4 C 19,4 C 17,8 C 79 % 0 lf 1011,1 hPa 0,0 l/m 2 min 0 min 90 W/m 6,3 km/h (2 Bft) 95,74 %
04.08.2016 20:06 19,3 C 19,4 C 17,8 C 79 % 0 lf 1011,1 hPa 0,0 l/m 2 min 0 min 90 W/m 10,5 km/h (2 Bft) 95,74 %
04.08.2016 20:08 19,3 C 19,4 C 17,8 C 79 % 0 lf 1011,1 hPa 0,0 l/m 2 min 0 min 89 W/m 8,4 km/h (2 Bft) 97,87 %
04.08.2016 20:10 19,3 C 19,4 C 17,8 C 79 % 0 lf 1011,1 hPa 0,0 l/m 2 min 0 min 86 W/m 6,3 km/h (2 Bft) 95,65 %
04.08.2016 20:12 19,3 C 19,4 C 17,8 C 80 % 0 lf 1011,1 hPa 0,0 l/m 2 min 0 min 82 W/m 6,3 km/h (2 Bft) 95,74 %
04.08.2016 20:14 19,3 C 19,4 C 17,8 C 80 % 0 lf 1011,2 hPa 0,0 l/m 2 min 0 min 78 W/m 8,4 km/h (2 Bft) 97,87 %
04.08.2016 20:16 19,3 C 18,9 C 17,8 C 80 % 0 lf 1011,2 hPa 0,0 l/m 2 min 0 min 74 W/m 8,4 km/h (2 Bft) 95,74 %
04.08.2016 20:18 19,2 C 18,9 C 17,8 C 79 % 0 lf 1011,2 hPa 0,0 l/m 2 min 0 min 73 W/m 12,6 km/h (3 Bft) 93,62 %
04.08.2016 20:20 19,2 C 18,9 C 17,8 C 79 % 0 lf 1011,2 hPa 0,0 l/m 2 min 0 min 72 W/m 14,6 km/h (3 Bft) 95,74 %
04.08.2016 20:22 19,2 C 18,9 C 17,8 C 79 % 0 lf 1011,2 hPa 0,0 l/m 2 min 0 min 69 W/m 8,4 km/h (2 Bft) 91,30 %
04.08.2016 20:24 19,2 C 18,9 C 17,8 C 79 % 0 lf 1011,1 hPa 0,0 l/m 2 min 0 min 64 W/m 4,2 km/h (1 Bft) 93,62 %
04.08.2016 20:26 19,2 C 18,9 C 17,2 C 79 % 0 lf 1011,1 hPa 0,0 l/m 2 min 0 min 63 W/m 6,3 km/h (2 Bft) 97,87 %
04.08.2016 20:28 19,1 C 18,9 C 17,2 C 80 % 0 lf 1011,1 hPa 0,0 l/m 2 min 0 min 63 W/m 4,2 km/h (1 Bft) 95,74 %
04.08.2016 20:30 19,1 C 18,9 C 17,2 C 80 % 0 lf 1011,2 hPa 0,0 l/m 2 min 0 min 60 W/m 8,4 km/h (2 Bft) 93,62 %
04.08.2016 20:32 19,1 C 18,9 C 17,2 C 80 % 0 lf 1011,1 hPa 0,0 l/m 2 min 0 min 54 W/m 8,4 km/h (2 Bft) 95,74 %
04.08.2016 20:34 19,1 C 18,9 C 17,2 C 80 % 0 lf 1011,1 hPa 0,0 l/m 2 min 0 min 51 W/m 4,2 km/h (1 Bft) 91,30 %
04.08.2016 20:36 19,1 C 18,9 C 17,2 C 80 % 0 lf 1011,1 hPa 0,0 l/m 2 min 0 min 47 W/m 2,1 km/h (1 Bft) 95,74 %
04.08.2016 20:38 19,0 C 18,9 C 17,2 C 80 % 0 lf 1011,0 hPa 0,0 l/m 2 min 0 min 46 W/m 8,4 km/h (2 Bft) 91,49 %
04.08.2016 20:40 19,0 C 18,9 C 17,2 C 80 % 0 lf 1011,0 hPa 0,0 l/m 2 min 0 min 46 W/m 6,3 km/h (2 Bft) 89,36 %
04.08.2016 20:42 19,0 C 18,9 C 16,7 C 80 % 0 lf 1011,0 hPa 0,0 l/m 2 min 0 min 46 W/m 6,3 km/h (2 Bft) 95,74 %
04.08.2016 20:44 19,0 C 18,9 C 16,7 C 80 % 0 lf 1011,1 hPa 0,0 l/m 2 min 0 min 46 W/m 6,3 km/h (2 Bft) 93,62 %
04.08.2016 20:46 18,9 C 18,3 C 16,7 C 80 % 0 lf 1011,1 hPa 0,0 l/m 2 min 0 min 44 W/m 6,3 km/h (2 Bft) 95,65 %
04.08.2016 20:48 18,9 C 18,3 C 16,7 C 80 % 0 lf 1011,2 hPa 0,0 l/m 2 min 0 min 41 W/m 8,4 km/h (2 Bft) 93,62 %
04.08.2016 20:50 18,9 C 18,3 C 16,7 C 81 % 0 lf 1011,2 hPa 0,0 l/m 2 min 0 min 37 W/m 6,3 km/h (2 Bft) 93,62 %
04.08.2016 20:52 18,9 C 18,3 C 16,7 C 81 % 0 lf 1011,2 hPa 0,0 l/m 2 min 0 min 33 W/m 8,4 km/h (2 Bft) 95,74 %
04.08.2016 20:54 18,9 C 18,3 C 16,7 C 81 % 0 lf 1011,2 hPa 0,0 l/m 2 min 0 min 31 W/m 6,3 km/h (2 Bft) 93,62 %
04.08.2016 20:56 18,8 C 18,3 C 16,7 C 81 % 0 lf 1011,3 hPa 0,0 l/m 2 min 0 min 29 W/m 8,4 km/h (2 Bft) 93,48 %
04.08.2016 20:58 18,8 C 18,3 C 16,1 C 81 % 0 lf 1011,3 hPa 0,0 l/m 2 min 0 min 26 W/m 6,3 km/h (2 Bft) 91,49 %
04.08.2016 21:00 18,8 C 17,8 C 16,1 C 81 % 0 lf 1011,3 hPa 0,0 l/m 2 min 0 min 24 W/m 6,3 km/h (2 Bft) 93,62 %
04.08.2016 21:02 18,8 C 17,8 C 16,7 C 81 % 0 lf 1011,3 hPa 0,0 l/m 2 min 0 min 21 W/m 6,3 km/h (2 Bft) 92,45 %
04.08.2016 21:04 18,7 C 17,8 C 16,7 C 81 % 0 lf 1011,2 hPa 0,0 l/m 0 min 0 min 19 W/m 8,4 km/h (2 Bft) 93,62 %
04.08.2016 21:06 18,7 C 17,8 C 16,1 C 81 % 0 lf 1011,2 hPa 0,0 l/m 0 min 0 min 17 W/m 6,3 km/h (2 Bft) 97,14 %
04.08.2016 21:08 18,7 C 17,8 C 16,1 C 81 % 0 lf 1011,3 hPa 0,0 l/m 0 min 0 min 16 W/m 6,3 km/h (2 Bft) 96,72 %
04.08.2016 21:10 18,7 C 17,8 C 16,1 C 81 % 0 lf 1011,4 hPa 0,0 l/m 0 min 0 min 15 W/m 10,5 km/h (2 Bft) 95,74 %
04.08.2016 21:12 18,6 C 17,8 C 16,1 C 81 % 0 lf 1011,4 hPa 0,0 l/m 0 min 0 min 14 W/m 8,4 km/h (2 Bft) 93,62 %
04.08.2016 21:14 18,6 C 17,8 C 16,1 C 82 % 0 lf 1011,4 hPa 0,0 l/m 0 min 0 min 15 W/m 10,5 km/h (2 Bft) 95,74 %
04.08.2016 21:16 18,6 C 17,8 C 16,1 C 82 % 0 lf 1011,4 hPa 0,0 l/m 0 min 0 min 14 W/m 10,5 km/h (2 Bft) 95,74 %
04.08.2016 21:18 18,5 C 17,8 C 16,1 C 82 % 0 lf 1011,4 hPa 0,0 l/m 0 min 0 min 14 W/m 8,4 km/h (2 Bft) 95,65 %
04.08.2016 21:20 18,4 C 17,8 C 16,1 C 82 % 0 lf 1011,4 hPa 0,0 l/m 0 min 0 min 13 W/m 8,4 km/h (2 Bft) 97,87 %
04.08.2016 21:22 18,4 C 17,8 C 16,1 C 82 % 0 lf 1011,4 hPa 0,0 l/m 0 min 0 min 12 W/m 8,4 km/h (2 Bft) 97,87 %
04.08.2016 21:24 18,4 C 17,8 C 16,1 C 82 % 0 lf 1011,4 hPa 0,0 l/m 0 min 0 min 9 W/m 12,6 km/h (3 Bft) 97,87 %
04.08.2016 21:26 18,3 C 17,8 C 16,1 C 82 % 0 lf 1011,4 hPa 0,0 l/m 0 min 0 min 9 W/m 6,3 km/h (2 Bft) 95,74 %
04.08.2016 21:28 18,3 C 17,8 C 16,1 C 82 % 0 lf 1011,4 hPa 0,0 l/m 0 min 0 min 9 W/m 10,5 km/h (2 Bft) 97,87 %
04.08.2016 21:30 18,3 C 17,8 C 16,1 C 82 % 0 lf 1011,4 hPa 0,0 l/m 0 min 0 min 8 W/m 8,4 km/h (2 Bft) 100,00 %
04.08.2016 21:32 18,3 C 17,2 C 16,1 C 82 % 0 lf 1011,4 hPa 0,0 l/m 0 min 0 min 0 W/m 6,3 km/h (2 Bft) 100,00 %
04.08.2016 21:34 18,2 C 17,2 C 15,6 C 83 % 0 lf 1011,4 hPa 0,0 l/m 0 min 0 min 0 W/m 4,2 km/h (1 Bft) 100,00 %
04.08.2016 21:36 18,2 C 17,2 C 15,6 C 83 % 0 lf 1011,5 hPa 0,0 l/m 0 min 0 min 5 W/m 6,3 km/h (2 Bft) 100,00 %
04.08.2016 21:38 18,2 C 17,2 C 15,6 C 83 % 0 lf 1011,5 hPa 0,0 l/m 0 min 0 min 5 W/m 10,5 km/h (2 Bft) 100,00 %
04.08.2016 21:40 18,2 C 17,2 C 15,6 C 83 % 0 lf 1011,4 hPa 0,0 l/m 0 min 0 min 5 W/m 10,5 km/h (2 Bft) 97,87 %
04.08.2016 21:42 18,1 C 17,2 C 15,6 C 83 % 0 lf 1011,4 hPa 0,0 l/m 0 min 0 min 5 W/m 10,5 km/h (2 Bft) 97,83 %
04.08.2016 21:44 18,1 C 17,2 C 15,6 C 83 % 0 lf 1011,5 hPa 0,0 l/m 0 min 0 min 5 W/m 10,5 km/h (2 Bft) 95,74 %
04.08.2016 21:46 18,1 C 17,2 C 15,6 C 83 % 0 lf 1011,6 hPa 0,0 l/m 0 min 0 min 5 W/m 12,6 km/h (3 Bft) 100,00 %
04.08.2016 21:48 18,0 C 17,2 C 15,6 C 83 % 0 lf 1011,6 hPa 0,0 l/m 0 min 0 min 5 W/m 8,4 km/h (2 Bft) 100,00 %
04.08.2016 21:50 18,0 C 17,2 C 15,6 C 83 % 0 lf 1011,7 hPa 0,0 l/m 0 min 0 min 5 W/m 10,5 km/h (2 Bft) 95,74 %
04.08.2016 21:52 17,9 C 17,2 C 15,6 C 84 % 0 lf 1011,7 hPa 0,0 l/m 0 min 0 min 5 W/m 12,6 km/h (3 Bft) 100,00 %
04.08.2016 21:54 17,9 C 17,2 C 15,6 C 84 % 0 lf 1011,8 hPa 0,0 l/m 0 min 0 min 5 W/m 12,6 km/h (3 Bft) 93,62 %
04.08.2016 21:56 17,9 C 17,2 C 15,6 C 84 % 0 lf 1011,8 hPa 0,0 l/m 0 min 0 min 5 W/m 10,5 km/h (2 Bft) 100,00 %
04.08.2016 21:58 17,8 C 17,2 C 15,6 C 84 % 0 lf 1011,9 hPa 0,0 l/m 0 min 0 min 5 W/m 10,5 km/h (2 Bft) 100,00 %
04.08.2016 22:00 17,8 C 17,2 C 15,6 C 84 % 0 lf 1011,9 hPa 0,0 l/m 0 min 0 min 5 W/m 8,4 km/h (2 Bft) 97,87 %
04.08.2016 22:02 17,8 C 17,2 C 15,6 C 84 % 0 lf 1011,9 hPa 0,0 l/m 0 min 0 min 5 W/m 14,6 km/h (3 Bft) 97,87 %
04.08.2016 22:04 17,8 C 17,2 C 15,6 C 84 % 0 lf 1011,9 hPa 0,0 l/m 0 min 0 min 5 W/m 8,4 km/h (2 Bft) 100,00 %
04.08.2016 22:06 17,7 C 17,2 C 15,6 C 84 % 0 lf 1011,8 hPa 0,0 l/m 0 min 0 min 5 W/m 10,5 km/h (2 Bft) 93,62 %
04.08.2016 22:08 17,7 C 17,2 C 15,6 C 84 % 0 lf 1011,8 hPa 0,0 l/m 0 min 0 min 5 W/m 12,6 km/h (3 Bft) 93,62 %
04.08.2016 22:10 17,7 C 17,2 C 15,6 C 85 % 0 lf 1011,8 hPa 0,0 l/m 0 min 0 min 5 W/m 12,6 km/h (3 Bft) 97,87 %
04.08.2016 22:12 17,7 C 16,7 C 15,6 C 85 % 0 lf 1011,7 hPa 0,0 l/m 0 min 0 min 5 W/m 8,4 km/h (2 Bft) 97,87 %
04.08.2016 22:14 17,6 C 16,7 C 15,6 C 85 % 0 lf 1011,6 hPa 0,0 l/m 0 min 0 min 5 W/m 12,6 km/h (3 Bft) 97,87 %
04.08.2016 22:16 17,6 C 16,7 C 15,6 C 85 % 0 lf 1011,8 hPa 0,0 l/m 0 min 0 min 5 W/m 10,5 km/h (2 Bft) 95,65 %
04.08.2016 22:18 17,6 C 16,7 C 15,6 C 85 % 0 lf 1011,8 hPa 0,0 l/m 0 min 0 min 5 W/m 14,6 km/h (3 Bft) 97,87 %
04.08.2016 22:20 17,5 C 16,7 C 15,6 C 85 % 0 lf 1011,8 hPa 0,0 l/m 0 min 0 min 5 W/m 12,6 km/h (3 Bft) 97,87 %
04.08.2016 22:22 17,5 C 16,7 C 15,0 C 85 % 0 lf 1011,8 hPa 0,0 l/m 0 min 0 min 5 W/m 10,5 km/h (2 Bft) 95,74 %
04.08.2016 22:24 17,5 C 16,7 C 15,0 C 85 % 0 lf 1011,9 hPa 0,0 l/m 0 min 0 min 5 W/m 10,5 km/h (2 Bft) 95,74 %
04.08.2016 22:26 17,4 C 16,7 C 15,0 C 85 % 0 lf 1011,9 hPa 0,0 l/m 0 min 0 min 5 W/m 10,5 km/h (2 Bft) 97,87 %
04.08.2016 22:28 17,4 C 16,7 C 15,0 C 86 % 0 lf 1011,9 hPa 0,0 l/m 0 min 0 min 5 W/m 6,3 km/h (2 Bft) 97,83 %
04.08.2016 22:30 17,4 C 16,7 C 15,0 C 85 % 0 lf 1011,9 hPa 0,0 l/m 0 min 0 min 5 W/m 8,4 km/h (2 Bft) 97,87 %
04.08.2016 22:32 17,4 C 16,7 C 15,0 C 85 % 0 lf 1011,9 hPa 0,0 l/m 0 min 0 min 5 W/m 8,4 km/h (2 Bft) 97,87 %
04.08.2016 22:34 17,4 C 16,7 C 15,0 C 85 % 0 lf 1011,9 hPa 0,0 l/m 0 min 0 min 5 W/m 10,5 km/h (2 Bft) 95,74 %
04.08.2016 22:36 17,3 C 16,7 C 15,0 C 86 % 0 lf 1011,9 hPa 0,0 l/m 0 min 0 min 5 W/m 10,5 km/h (2 Bft) 93,62 %
04.08.2016 22:38 17,3 C 16,7 C 15,0 C 86 % 0 lf 1011,8 hPa 0,0 l/m 0 min 0 min 5 W/m 14,6 km/h (3 Bft) 95,74 %
04.08.2016 22:40 17,3 C 16,7 C 15,0 C 86 % 0 lf 1011,8 hPa 0,0 l/m 0 min 0 min 5 W/m 10,5 km/h (2 Bft) 93,48 %
04.08.2016 22:42 17,2 C 16,7 C 15,0 C 86 % 0 lf 1011,9 hPa 0,0 l/m 0 min 0 min 5 W/m 10,5 km/h (2 Bft) 93,62 %
04.08.2016 22:44 17,2 C 16,7 C 15,0 C 86 % 0 lf 1011,9 hPa 0,0 l/m 0 min 0 min 5 W/m 10,5 km/h (2 Bft) 97,87 %
04.08.2016 22:46 17,2 C 16,7 C 15,0 C 86 % 0 lf 1011,9 hPa 0,0 l/m 0 min 0 min 5 W/m 10,5 km/h (2 Bft) 95,74 %
04.08.2016 22:48 17,2 C 16,7 C 15,0 C 86 % 0 lf 1012,0 hPa 0,0 l/m 0 min 0 min 5 W/m 14,6 km/h (3 Bft) 93,62 %
04.08.2016 22:50 17,2 C 16,7 C 15,0 C 87 % 0 lf 1012,1 hPa 0,0 l/m 0 min 0 min 5 W/m 10,5 km/h (2 Bft) 97,87 %
04.08.2016 22:52 17,1 C 16,1 C 15,0 C 87 % 0 lf 1012,1 hPa 0,0 l/m 0 min 0 min 5 W/m 8,4 km/h (2 Bft) 91,30 %
04.08.2016 22:54 17,1 C 16,7 C 15,0 C 87 % 0 lf 1012,1 hPa 0,0 l/m 0 min 0 min 5 W/m 12,6 km/h (3 Bft) 97,87 %
04.08.2016 22:56 17,1 C 16,7 C 15,0 C 87 % 0 lf 1012,1 hPa 0,0 l/m 0 min 0 min 5 W/m 12,6 km/h (3 Bft) 97,87 %
04.08.2016 22:58 17,1 C 16,1 C 15,0 C 87 % 0 lf 1012,1 hPa 0,0 l/m 0 min 0 min 5 W/m 8,4 km/h (2 Bft) 97,87 %
04.08.2016 23:00 17,1 C 16,1 C 15,0 C 87 % 0 lf 1012,1 hPa 0,0 l/m 0 min 0 min 5 W/m 10,5 km/h (2 Bft) 97,87 %
04.08.2016 23:02 17,0 C 16,1 C 15,0 C 87 % 0 lf 1012,1 hPa 0,0 l/m 0 min 0 min 5 W/m 14,6 km/h (3 Bft) 95,74 %
04.08.2016 23:04 16,9 C 16,1 C 15,0 C 87 % 0 lf 1012,0 hPa 0,0 l/m 0 min 0 min 5 W/m 12,6 km/h (3 Bft) 91,30 %
04.08.2016 23:06 16,9 C 16,1 C 15,0 C 87 % 0 lf 1012,1 hPa 0,0 l/m 0 min 0 min 5 W/m 12,6 km/h (3 Bft) 95,74 %
04.08.2016 23:08 16,9 C 16,1 C 15,0 C 87 % 0 lf 1012,1 hPa 0,0 l/m 0 min 0 min 5 W/m 12,6 km/h (3 Bft) 95,74 %
04.08.2016 23:10 16,9 C 16,1 C 15,0 C 87 % 0 lf 1012,1 hPa 0,0 l/m 0 min 0 min 5 W/m 12,6 km/h (3 Bft) 91,49 %
04.08.2016 23:12 16,9 C 16,1 C 15,0 C 88 % 1 lf 1012,2 hPa 0,0 l/m 0 min 0 min 5 W/m 10,5 km/h (2 Bft) 97,87 %
04.08.2016 23:14 16,8 C 16,1 C 15,0 C 88 % 1 lf 1012,1 hPa 0,0 l/m 0 min 0 min 5 W/m 12,6 km/h (3 Bft) 95,65 %
04.08.2016 23:16 16,8 C 16,1 C 15,0 C 88 % 1 lf 1012,1 hPa 0,0 l/m 0 min 0 min 5 W/m 10,5 km/h (2 Bft) 95,74 %
04.08.2016 23:18 16,8 C 16,1 C 15,0 C 88 % 1 lf 1012,1 hPa 0,0 l/m 0 min 0 min 5 W/m 14,6 km/h (3 Bft) 95,74 %
04.08.2016 23:20 16,8 C 16,1 C 15,0 C 88 % 1 lf 1012,1 hPa 0,0 l/m 0 min 0 min 5 W/m 14,6 km/h (3 Bft) 91,49 %
04.08.2016 23:22 16,8 C 16,1 C 15,0 C 88 % 1 lf 1012,2 hPa 0,0 l/m 0 min 0 min 5 W/m 10,5 km/h (2 Bft) 93,62 %
04.08.2016 23:24 16,7 C 16,1 C 15,0 C 88 % 1 lf 1012,3 hPa 0,0 l/m 0 min 0 min 5 W/m 10,5 km/h (2 Bft) 95,74 %
04.08.2016 23:26 16,7 C 16,1 C 15,0 C 88 % 1 lf 1012,2 hPa 0,0 l/m 0 min 0 min 5 W/m 10,5 km/h (2 Bft) 95,65 %
04.08.2016 23:28 16,7 C 16,1 C 14,4 C 88 % 1 lf 1012,3 hPa 0,0 l/m 0 min 0 min 5 W/m 14,6 km/h (3 Bft) 97,87 %
04.08.2016 23:30 16,7 C 16,1 C 14,4 C 88 % 1 lf 1012,3 hPa 0,0 l/m 0 min 0 min 5 W/m 10,5 km/h (2 Bft) 97,87 %
04.08.2016 23:32 16,7 C 16,1 C 14,4 C 88 % 1 lf 1012,4 hPa 0,0 l/m 0 min 0 min 5 W/m 10,5 km/h (2 Bft) 97,87 %
04.08.2016 23:34 16,7 C 16,1 C 14,4 C 88 % 1 lf 1012,4 hPa 0,0 l/m 0 min 0 min 5 W/m 14,6 km/h (3 Bft) 95,74 %
04.08.2016 23:36 16,6 C 16,1 C 14,4 C 88 % 1 lf 1012,5 hPa 0,0 l/m 0 min 0 min 5 W/m 12,6 km/h (3 Bft) 97,87 %
04.08.2016 23:38 16,6 C 16,1 C 14,4 C 88 % 1 lf 1012,5 hPa 0,0 l/m 0 min 0 min 5 W/m 12,6 km/h (3 Bft) 95,65 %
04.08.2016 23:40 16,6 C 16,1 C 14,4 C 88 % 1 lf 1012,5 hPa 0,0 l/m 0 min 0 min 5 W/m 10,5 km/h (2 Bft) 95,74 %
04.08.2016 23:42 16,6 C 16,1 C 14,4 C 89 % 1 lf 1012,5 hPa 0,0 l/m 0 min 0 min 5 W/m 8,4 km/h (2 Bft) 95,74 %
04.08.2016 23:44 16,6 C 16,1 C 14,4 C 89 % 1 lf 1012,5 hPa 0,0 l/m 0 min 0 min 5 W/m 6,3 km/h (2 Bft) 95,74 %
04.08.2016 23:46 16,5 C 15,6 C 14,4 C 89 % 1 lf 1012,5 hPa 0,0 l/m 0 min 0 min 5 W/m 8,4 km/h (2 Bft) 93,62 %
04.08.2016 23:48 16,5 C 15,6 C 14,4 C 89 % 1 lf 1012,5 hPa 0,0 l/m 0 min 0 min 5 W/m 8,4 km/h (2 Bft) 94,74 %
04.08.2016 23:50 16,4 C 15,6 C 14,4 C 89 % 1 lf 1012,5 hPa 0,0 l/m 0 min 0 min 5 W/m 10,5 km/h (2 Bft) 95,74 %
04.08.2016 23:52 16,4 C 15,6 C 14,4 C 89 % 1 lf 1012,4 hPa 0,0 l/m 0 min 0 min 5 W/m 4,2 km/h (1 Bft) 93,48 %
04.08.2016 23:54 16,4 C 15,6 C 13,9 C 89 % 1 lf 1012,4 hPa 0,0 l/m 0 min 0 min 5 W/m 6,3 km/h (2 Bft) 95,74 %
04.08.2016 23:56 16,4 C 15,6 C 13,9 C 89 % 1 lf 1012,4 hPa 0,0 l/m 0 min 0 min 5 W/m 8,4 km/h (2 Bft) 97,87 %
04.08.2016 23:58 16,4 C 15,6 C 13,9 C 89 % 1 lf 1012,5 hPa 0,0 l/m 0 min 0 min 5 W/m 6,3 km/h (2 Bft) 95,74 %
_ Min-Zeit 06:06 03:50 05:40 17:10 09:12 00:14 - - - - 20:36 06:38
Minimum _ 15,7 C 15,6 C 13,9 C 75 % 0 lf 1009,7 hPa - - - - 2,1 km/h (1 Bft) 87,23 %
_ Max-Zeit 16:42 16:16 15:04 00:00 00:00 23:36 00:00 06:18 00:05 15:02 12:06 00:02
Maximum _ 20,2 C 23,3 C 22,2 C 98 % 15 lf 1012,5 hPa 0,0 l/m 2 min 2 min 581 W/m 33,5 km/h
S-SW (5 Bft)
100,00 %
Durchschnitt _ 17,8 C 18,4 C 17,1 C 87 % 4 lf 1010,7 hPa #0,0 l/m #7:00 h #9 min. 143 W/m 15,6 km/h (3 Bft) 96,12 %
© 2016 W. Hausmann